Wetterdaten: Mittwoch, 28.05.2014
Datum Zeit Temp. Aussen +5cm Feuchte Auss Luftdruck Regen Sonnenschein Regendauer UV Solar Windben
28.05.2014 00:00 13,8 C 12,8 C 97 % 1010,6 hPa 0,0 l/m 0 min 0 min 0,0 UV-I 0 W/m 5,1 km/h (1 Bft)
28.05.2014 00:02 13,8 C 12,2 C 97 % 1010,7 hPa 0,0 l/m 0 min 0 min 0,0 UV-I 0 W/m 10,3 km/h (2 Bft)
28.05.2014 00:06 13,8 C 12,8 C 97 % 1010,7 hPa 0,0 l/m 0 min 0 min 0,0 UV-I 0 W/m 7,7 km/h (2 Bft)
28.05.2014 00:08 13,8 C 12,8 C 97 % 1010,8 hPa 0,0 l/m 0 min 0 min 0,0 UV-I 0 W/m 2,6 km/h (1 Bft)
28.05.2014 00:10 13,8 C 12,2 C 97 % 1010,8 hPa 0,0 l/m 0 min 0 min 0,0 UV-I 0 W/m 0,0 km/h (0 Bft)
28.05.2014 00:12 13,8 C 12,2 C 97 % 1010,8 hPa 0,0 l/m 0 min 0 min 0,0 UV-I 0 W/m 0,0 km/h (0 Bft)
28.05.2014 00:14 13,8 C 12,8 C 97 % 1011,0 hPa 0,0 l/m 0 min 0 min 0,0 UV-I 0 W/m 0,0 km/h (0 Bft)
28.05.2014 00:16 13,8 C 12,8 C 97 % 1011,0 hPa 0,0 l/m 0 min 0 min 0,0 UV-I 0 W/m 0,0 km/h (0 Bft)
28.05.2014 00:18 13,8 C 12,8 C 97 % 1011,0 hPa 0,0 l/m 0 min 0 min 0,0 UV-I 0 W/m 10,3 km/h (2 Bft)
28.05.2014 00:20 13,8 C 12,2 C 97 % 1010,9 hPa 0,0 l/m 0 min 0 min 0,0 UV-I 0 W/m 7,7 km/h (2 Bft)
28.05.2014 00:22 13,8 C 12,2 C 97 % 1011,0 hPa 0,0 l/m 0 min 0 min 0,0 UV-I 0 W/m 7,7 km/h (2 Bft)
28.05.2014 00:24 13,8 C 12,2 C 97 % 1011,0 hPa 0,0 l/m 0 min 0 min 0,0 UV-I 0 W/m 12,9 km/h (3 Bft)
28.05.2014 00:26 13,8 C 12,2 C 97 % 1011,0 hPa 0,0 l/m 0 min 0 min 0,0 UV-I 0 W/m 10,3 km/h (2 Bft)
28.05.2014 00:28 13,8 C 12,2 C 97 % 1011,1 hPa 0,0 l/m 0 min 0 min 0,0 UV-I 0 W/m 2,6 km/h (1 Bft)
28.05.2014 00:30 13,8 C 12,2 C 97 % 1011,0 hPa 0,0 l/m 0 min 0 min 0,0 UV-I 0 W/m 15,4 km/h (3 Bft)
28.05.2014 00:32 13,8 C 12,2 C 97 % 1011,0 hPa 0,0 l/m 0 min 0 min 0,0 UV-I 0 W/m 15,4 km/h (3 Bft)
28.05.2014 00:34 13,8 C 12,2 C 97 % 1011,0 hPa 0,0 l/m 0 min 0 min 0,0 UV-I 0 W/m 15,4 km/h (3 Bft)
28.05.2014 00:36 13,8 C 12,2 C 97 % 1010,9 hPa 0,0 l/m 0 min 0 min 0,0 UV-I 0 W/m 2,6 km/h (1 Bft)
28.05.2014 00:38 13,8 C 12,2 C 97 % 1010,9 hPa 0,0 l/m 0 min 0 min 0,0 UV-I 0 W/m 12,9 km/h (3 Bft)
28.05.2014 00:40 13,7 C 12,2 C 97 % 1010,9 hPa 0,0 l/m 0 min 0 min 0,0 UV-I 0 W/m 12,9 km/h (3 Bft)
28.05.2014 00:42 13,7 C 12,2 C 97 % 1010,9 hPa 0,0 l/m 0 min 0 min 0,0 UV-I 0 W/m 10,3 km/h (2 Bft)
28.05.2014 00:44 13,7 C 12,2 C 97 % 1010,8 hPa 0,0 l/m 0 min 0 min 0,0 UV-I 0 W/m 7,7 km/h (2 Bft)
28.05.2014 00:46 13,7 C 12,2 C 97 % 1010,9 hPa 0,0 l/m 0 min 0 min 0,0 UV-I 0 W/m 12,9 km/h (3 Bft)
28.05.2014 00:48 13,7 C 12,2 C 97 % 1010,9 hPa 0,0 l/m 0 min 0 min 0,0 UV-I 0 W/m 10,3 km/h (2 Bft)
28.05.2014 00:50 13,7 C 12,2 C 97 % 1010,8 hPa 0,0 l/m 0 min 0 min 0,0 UV-I 0 W/m 12,9 km/h (3 Bft)
28.05.2014 00:52 13,7 C 12,2 C 97 % 1010,9 hPa 0,0 l/m 0 min 0 min 0,0 UV-I 0 W/m 7,7 km/h (2 Bft)
28.05.2014 00:54 13,7 C 12,2 C 97 % 1010,9 hPa 0,0 l/m 0 min 0 min 0,0 UV-I 0 W/m 5,1 km/h (1 Bft)
28.05.2014 00:56 13,7 C 12,2 C 97 % 1010,9 hPa 0,0 l/m 0 min 0 min 0,0 UV-I 0 W/m 7,7 km/h (2 Bft)
28.05.2014 00:58 13,7 C 12,2 C 97 % 1010,9 hPa 0,0 l/m 0 min 0 min 0,0 UV-I 0 W/m 2,6 km/h (1 Bft)
28.05.2014 01:00 13,7 C 12,2 C 96 % 1010,9 hPa 0,0 l/m 0 min 0 min 0,0 UV-I 0 W/m 10,3 km/h (2 Bft)
28.05.2014 01:02 13,7 C 12,2 C 96 % 1010,9 hPa 0,0 l/m 0 min 0 min 0,0 UV-I 0 W/m 2,6 km/h (1 Bft)
28.05.2014 01:06 13,7 C 12,2 C 96 % 1010,8 hPa 0,0 l/m 0 min 0 min 0,0 UV-I 0 W/m 2,6 km/h (1 Bft)
28.05.2014 01:08 13,7 C 12,2 C 96 % 1010,8 hPa 0,0 l/m 0 min 0 min 0,0 UV-I 0 W/m 0,0 km/h (0 Bft)
28.05.2014 01:10 13,7 C 12,2 C 96 % 1010,8 hPa 0,0 l/m 0 min 0 min 0,0 UV-I 0 W/m 7,7 km/h (2 Bft)
28.05.2014 01:12 13,7 C 12,2 C 96 % 1010,7 hPa 0,0 l/m 0 min 0 min 0,0 UV-I 0 W/m 5,1 km/h (1 Bft)
28.05.2014 01:14 13,7 C 12,2 C 96 % 1010,7 hPa 0,0 l/m 0 min 0 min 0,0 UV-I 0 W/m 10,3 km/h (2 Bft)
28.05.2014 01:16 13,7 C 12,2 C 96 % 1010,7 hPa 0,0 l/m 0 min 0 min 0,0 UV-I 0 W/m 0,0 km/h (0 Bft)
28.05.2014 01:18 13,7 C 12,2 C 96 % 1010,7 hPa 0,0 l/m 0 min 0 min 0,0 UV-I 0 W/m 0,0 km/h (0 Bft)
28.05.2014 01:20 13,7 C 12,2 C 96 % 1010,7 hPa 0,0 l/m 0 min 0 min 0,0 UV-I 0 W/m 7,7 km/h (2 Bft)
28.05.2014 01:22 13,7 C 12,2 C 96 % 1010,6 hPa 0,0 l/m 0 min 0 min 0,0 UV-I 0 W/m 10,3 km/h (2 Bft)
28.05.2014 01:24 13,7 C 12,2 C 96 % 1010,7 hPa 0,0 l/m 0 min 0 min 0,0 UV-I 0 W/m 7,7 km/h (2 Bft)
28.05.2014 01:26 13,7 C 12,2 C 96 % 1010,7 hPa 0,0 l/m 0 min 0 min 0,0 UV-I 0 W/m 12,9 km/h (3 Bft)
28.05.2014 01:28 13,7 C 12,2 C 96 % 1010,7 hPa 0,0 l/m 0 min 0 min 0,0 UV-I 0 W/m 7,7 km/h (2 Bft)
28.05.2014 01:30 13,7 C 12,2 C 96 % 1010,6 hPa 0,0 l/m 0 min 0 min 0,0 UV-I 0 W/m 7,7 km/h (2 Bft)
28.05.2014 01:32 13,7 C 12,2 C 96 % 1010,6 hPa 0,0 l/m 0 min 0 min 0,0 UV-I 0 W/m 0,0 km/h (0 Bft)
28.05.2014 01:34 13,7 C 12,2 C 96 % 1010,5 hPa 0,0 l/m 0 min 0 min 0,0 UV-I 0 W/m 0,0 km/h (0 Bft)
28.05.2014 01:36 13,7 C 12,2 C 96 % 1010,5 hPa 0,0 l/m 0 min 0 min 0,0 UV-I 0 W/m 5,1 km/h (1 Bft)
28.05.2014 01:38 13,7 C 12,2 C 96 % 1010,5 hPa 0,0 l/m 0 min 0 min 0,0 UV-I 0 W/m 2,6 km/h (1 Bft)
28.05.2014 01:40 13,7 C 12,2 C 96 % 1010,5 hPa 0,0 l/m 0 min 0 min 0,0 UV-I 0 W/m 7,7 km/h (2 Bft)
28.05.2014 01:42 13,7 C 12,2 C 96 % 1010,5 hPa 0,0 l/m 0 min 0 min 0,0 UV-I 0 W/m 7,7 km/h (2 Bft)
28.05.2014 01:44 13,7 C 12,2 C 96 % 1010,4 hPa 0,0 l/m 0 min 0 min 0,0 UV-I 0 W/m 7,7 km/h (2 Bft)
28.05.2014 01:46 13,6 C 12,2 C 96 % 1010,4 hPa 0,0 l/m 0 min 0 min 0,0 UV-I 0 W/m 5,1 km/h (1 Bft)
28.05.2014 01:48 13,6 C 12,2 C 96 % 1010,4 hPa 0,0 l/m 0 min 0 min 0,0 UV-I 0 W/m 5,1 km/h (1 Bft)
28.05.2014 01:50 13,6 C 12,2 C 96 % 1010,4 hPa 0,0 l/m 0 min 0 min 0,0 UV-I 0 W/m 2,6 km/h (1 Bft)
28.05.2014 01:52 13,6 C 12,2 C 96 % 1010,3 hPa 0,0 l/m 0 min 0 min 0,0 UV-I 0 W/m 5,1 km/h (1 Bft)
28.05.2014 01:54 13,6 C 12,2 C 96 % 1010,3 hPa 0,0 l/m 0 min 0 min 0,0 UV-I 0 W/m 2,6 km/h (1 Bft)
28.05.2014 01:56 13,6 C 12,2 C 96 % 1010,3 hPa 0,0 l/m 0 min 0 min 0,0 UV-I 0 W/m 7,7 km/h (2 Bft)
28.05.2014 01:58 13,6 C 12,2 C 96 % 1010,3 hPa 0,0 l/m 0 min 0 min 0,0 UV-I 0 W/m 2,6 km/h (1 Bft)
28.05.2014 02:00 13,6 C 12,2 C 96 % 1010,3 hPa 0,0 l/m 0 min 0 min 0,0 UV-I 0 W/m 5,1 km/h (1 Bft)
28.05.2014 02:02 13,6 C 12,2 C 96 % 1010,2 hPa 0,0 l/m 0 min 0 min 0,0 UV-I 0 W/m 7,7 km/h (2 Bft)
28.05.2014 02:06 13,6 C 12,2 C 96 % 1010,3 hPa 0,0 l/m 0 min 0 min 0,0 UV-I 0 W/m 7,7 km/h (2 Bft)
28.05.2014 02:08 13,5 C 12,2 C 96 % 1010,2 hPa 0,0 l/m 0 min 0 min 0,0 UV-I 0 W/m 15,4 km/h (3 Bft)
28.05.2014 02:10 13,5 C 12,2 C 96 % 1010,2 hPa 0,0 l/m 0 min 0 min 0,0 UV-I 0 W/m 18,0 km/h (3 Bft)
28.05.2014 02:12 13,5 C 12,2 C 96 % 1010,2 hPa 0,0 l/m 0 min 0 min 0,0 UV-I 0 W/m 10,3 km/h (2 Bft)
28.05.2014 02:14 13,5 C 12,2 C 96 % 1010,2 hPa 0,0 l/m 0 min 0 min 0,0 UV-I 0 W/m 0,0 km/h (0 Bft)
28.05.2014 02:16 13,5 C 12,2 C 96 % 1010,2 hPa 0,0 l/m 0 min 0 min 0,0 UV-I 0 W/m 10,3 km/h (2 Bft)
28.05.2014 02:18 13,5 C 12,2 C 96 % 1010,2 hPa 0,0 l/m 0 min 0 min 0,0 UV-I 0 W/m 7,7 km/h (2 Bft)
28.05.2014 02:20 13,5 C 12,2 C 96 % 1010,1 hPa 0,0 l/m 0 min 0 min 0,0 UV-I 0 W/m 5,1 km/h (1 Bft)
28.05.2014 02:22 13,5 C 12,2 C 96 % 1010,1 hPa 0,0 l/m 0 min 0 min 0,0 UV-I 0 W/m 10,3 km/h (2 Bft)
28.05.2014 02:24 13,5 C 12,2 C 96 % 1010,1 hPa 0,0 l/m 0 min 0 min 0,0 UV-I 0 W/m 7,7 km/h (2 Bft)
28.05.2014 02:26 13,4 C 12,2 C 96 % 1010,1 hPa 0,0 l/m 0 min 0 min 0,0 UV-I 0 W/m 12,9 km/h (3 Bft)
28.05.2014 02:28 13,4 C 12,2 C 96 % 1010,1 hPa 0,0 l/m 0 min 0 min 0,0 UV-I 0 W/m 2,6 km/h (1 Bft)
28.05.2014 02:30 13,4 C 12,2 C 96 % 1010,1 hPa 0,0 l/m 0 min 0 min 0,0 UV-I 0 W/m 2,6 km/h (1 Bft)
28.05.2014 02:32 13,4 C 12,2 C 96 % 1010,2 hPa 0,0 l/m 0 min 0 min 0,0 UV-I 0 W/m 2,6 km/h (1 Bft)
28.05.2014 02:34 13,4 C 12,2 C 96 % 1010,1 hPa 0,0 l/m 0 min 0 min 0,0 UV-I 0 W/m 5,1 km/h (1 Bft)
28.05.2014 02:36 13,4 C 12,2 C 96 % 1010,2 hPa 0,0 l/m 0 min 0 min 0,0 UV-I 0 W/m 2,6 km/h (1 Bft)
28.05.2014 02:38 13,4 C 12,2 C 96 % 1010,1 hPa 0,0 l/m 0 min 0 min 0,0 UV-I 0 W/m 2,6 km/h (1 Bft)
28.05.2014 02:40 13,4 C 12,2 C 96 % 1010,1 hPa 0,0 l/m 0 min 0 min 0,0 UV-I 0 W/m 5,1 km/h (1 Bft)
28.05.2014 02:42 13,4 C 12,2 C 96 % 1010,2 hPa 0,0 l/m 0 min 0 min 0,0 UV-I 0 W/m 2,6 km/h (1 Bft)
28.05.2014 02:44 13,4 C 12,2 C 96 % 1010,2 hPa 0,0 l/m 0 min 0 min 0,0 UV-I 0 W/m 2,6 km/h (1 Bft)
28.05.2014 02:46 13,4 C 12,2 C 96 % 1010,2 hPa 0,0 l/m 0 min 0 min 0,0 UV-I 0 W/m 5,1 km/h (1 Bft)
28.05.2014 02:48 13,4 C 12,2 C 96 % 1010,2 hPa 0,0 l/m 0 min 0 min 0,0 UV-I 0 W/m 2,6 km/h (1 Bft)
28.05.2014 02:50 13,4 C 12,2 C 96 % 1010,2 hPa 0,0 l/m 0 min 0 min 0,0 UV-I 0 W/m 7,7 km/h (2 Bft)
28.05.2014 02:52 13,4 C 12,2 C 96 % 1010,2 hPa 0,0 l/m 0 min 0 min 0,0 UV-I 0 W/m 10,3 km/h (2 Bft)
28.05.2014 02:54 13,4 C 12,2 C 96 % 1010,2 hPa 0,0 l/m 0 min 0 min 0,0 UV-I 0 W/m 7,7 km/h (2 Bft)
28.05.2014 02:56 13,5 C 12,2 C 96 % 1010,2 hPa 0,0 l/m 0 min 0 min 0,0 UV-I 0 W/m 0,0 km/h (0 Bft)
28.05.2014 02:58 13,5 C 12,2 C 96 % 1010,3 hPa 0,0 l/m 0 min 0 min 0,0 UV-I 0 W/m 0,0 km/h (0 Bft)
28.05.2014 03:00 13,5 C 12,2 C 96 % 1010,3 hPa 0,0 l/m 0 min 0 min 0,0 UV-I 0 W/m 10,3 km/h (2 Bft)
28.05.2014 03:02 13,4 C 12,2 C 96 % 1010,3 hPa 0,0 l/m 0 min 0 min 0,0 UV-I 0 W/m 0,0 km/h (0 Bft)
28.05.2014 03:06 13,4 C 12,2 C 96 % 1010,3 hPa 0,0 l/m 0 min 0 min 0,0 UV-I 0 W/m 7,7 km/h (2 Bft)
28.05.2014 03:08 13,4 C 12,2 C 96 % 1010,2 hPa 0,0 l/m 0 min 0 min 0,0 UV-I 0 W/m 2,6 km/h (1 Bft)
28.05.2014 03:10 13,4 C 12,2 C 96 % 1010,2 hPa 0,0 l/m 0 min 0 min 0,0 UV-I 0 W/m 7,7 km/h (2 Bft)
28.05.2014 03:12 13,4 C 12,2 C 96 % 1010,2 hPa 0,0 l/m 0 min 0 min 0,0 UV-I 0 W/m 5,1 km/h (1 Bft)
28.05.2014 03:14 13,4 C 12,2 C 96 % 1010,2 hPa 0,0 l/m 0 min 0 min 0,0 UV-I 0 W/m 12,9 km/h (3 Bft)
28.05.2014 03:16 13,4 C 12,2 C 96 % 1010,1 hPa 0,0 l/m 0 min 0 min 0,0 UV-I 0 W/m 5,1 km/h (1 Bft)
28.05.2014 03:18 13,4 C 12,2 C 96 % 1010,1 hPa 0,0 l/m 0 min 0 min 0,0 UV-I 0 W/m 0,0 km/h (0 Bft)
28.05.2014 03:20 13,4 C 12,2 C 96 % 1010,1 hPa 0,0 l/m 0 min 0 min 0,0 UV-I 0 W/m 12,9 km/h (3 Bft)
28.05.2014 03:22 13,4 C 12,2 C 96 % 1010,2 hPa 0,0 l/m 0 min 0 min 0,0 UV-I 0 W/m 12,9 km/h (3 Bft)
28.05.2014 03:24 13,4 C 12,2 C 96 % 1010,1 hPa 0,0 l/m 0 min 0 min 0,0 UV-I 0 W/m 0,0 km/h (0 Bft)
28.05.2014 03:26 13,4 C 12,2 C 95 % 1010,2 hPa 0,0 l/m 0 min 0 min 0,0 UV-I 0 W/m 7,7 km/h (2 Bft)
28.05.2014 03:28 13,4 C 12,2 C 95 % 1010,2 hPa 0,0 l/m 0 min 0 min 0,0 UV-I 0 W/m 12,9 km/h (3 Bft)
28.05.2014 03:30 13,4 C 12,2 C 95 % 1010,2 hPa 0,0 l/m 0 min 0 min 0,0 UV-I 0 W/m 7,7 km/h (2 Bft)
28.05.2014 03:32 13,4 C 12,2 C 95 % 1010,2 hPa 0,0 l/m 0 min 0 min 0,0 UV-I 0 W/m 0,0 km/h (0 Bft)
28.05.2014 03:34 13,4 C 12,2 C 95 % 1010,2 hPa 0,0 l/m 0 min 0 min 0,0 UV-I 0 W/m 2,6 km/h (1 Bft)
28.05.2014 03:36 13,4 C 12,2 C 95 % 1010,2 hPa 0,0 l/m 0 min 0 min 0,0 UV-I 0 W/m 0,0 km/h (0 Bft)
28.05.2014 03:38 13,4 C 12,2 C 95 % 1010,2 hPa 0,0 l/m 0 min 0 min 0,0 UV-I 0 W/m 15,4 km/h (3 Bft)
28.05.2014 03:40 13,4 C 12,2 C 95 % 1010,2 hPa 0,0 l/m 0 min 0 min 0,0 UV-I 0 W/m 10,3 km/h (2 Bft)
28.05.2014 03:42 13,4 C 12,2 C 95 % 1010,2 hPa 0,0 l/m 0 min 0 min 0,0 UV-I 0 W/m 5,1 km/h (1 Bft)
28.05.2014 03:44 13,4 C 12,2 C 95 % 1010,2 hPa 0,0 l/m 0 min 0 min 0,0 UV-I 0 W/m 7,7 km/h (2 Bft)
28.05.2014 03:46 13,4 C 12,2 C 95 % 1010,2 hPa 0,0 l/m 0 min 0 min 0,0 UV-I 0 W/m 0,0 km/h (0 Bft)
28.05.2014 03:48 13,4 C 12,2 C 95 % 1010,2 hPa 0,0 l/m 0 min 0 min 0,0 UV-I 0 W/m 7,7 km/h (2 Bft)
28.05.2014 03:50 13,4 C 12,2 C 95 % 1010,2 hPa 0,0 l/m 0 min 0 min 0,0 UV-I 0 W/m 7,7 km/h (2 Bft)
28.05.2014 03:52 13,4 C 12,2 C 95 % 1010,2 hPa 0,0 l/m 0 min 0 min 0,0 UV-I 0 W/m 2,6 km/h (1 Bft)
28.05.2014 03:54 13,3 C 12,2 C 95 % 1010,1 hPa 0,0 l/m 0 min 0 min 0,0 UV-I 0 W/m 12,9 km/h (3 Bft)
28.05.2014 03:56 13,4 C 12,2 C 95 % 1010,1 hPa 0,0 l/m 0 min 0 min 0,0 UV-I 0 W/m 2,6 km/h (1 Bft)
28.05.2014 03:58 13,3 C 12,2 C 95 % 1010,1 hPa 0,0 l/m 0 min 0 min 0,0 UV-I 0 W/m 10,3 km/h (2 Bft)
28.05.2014 04:00 13,3 C 12,2 C 95 % 1010,1 hPa 0,0 l/m 0 min 0 min 0,0 UV-I 0 W/m 7,7 km/h (2 Bft)
28.05.2014 04:05 13,3 C 12,2 C 95 % 1010,1 hPa 0,0 l/m 0 min 0 min 0,0 UV-I 0 W/m 0,0 km/h (0 Bft)
28.05.2014 04:06 13,3 C 12,2 C 95 % 1010,1 hPa 0,0 l/m 0 min 0 min 0,0 UV-I 0 W/m 5,1 km/h (1 Bft)
28.05.2014 04:08 13,3 C 12,2 C 95 % 1010,1 hPa 0,0 l/m 0 min 0 min 0,0 UV-I 0 W/m 5,1 km/h (1 Bft)
28.05.2014 04:10 13,3 C 12,2 C 95 % 1010,1 hPa 0,0 l/m 0 min 0 min 0,0 UV-I 0 W/m 7,7 km/h (2 Bft)
28.05.2014 04:12 13,3 C 12,2 C 95 % 1010,1 hPa 0,0 l/m 0 min 0 min 0,0 UV-I 0 W/m 10,3 km/h (2 Bft)
28.05.2014 04:14 13,3 C 12,2 C 95 % 1010,0 hPa 0,0 l/m 0 min 0 min 0,0 UV-I 0 W/m 7,7 km/h (2 Bft)
28.05.2014 04:16 13,3 C 12,2 C 95 % 1010,0 hPa 0,0 l/m 0 min 0 min 0,0 UV-I 0 W/m 5,1 km/h (1 Bft)
28.05.2014 04:18 13,3 C 12,2 C 95 % 1010,0 hPa 0,0 l/m 0 min 0 min 0,0 UV-I 0 W/m 10,3 km/h (2 Bft)
28.05.2014 04:20 13,2 C 12,2 C 95 % 1010,0 hPa 0,0 l/m 0 min 0 min 0,0 UV-I 0 W/m 2,6 km/h (1 Bft)
28.05.2014 04:22 13,2 C 12,2 C 95 % 1010,1 hPa 0,0 l/m 0 min 0 min 0,0 UV-I 0 W/m 7,7 km/h (2 Bft)
28.05.2014 04:24 13,2 C 12,2 C 95 % 1010,0 hPa 0,0 l/m 0 min 0 min 0,0 UV-I 0 W/m 5,1 km/h (1 Bft)
28.05.2014 04:26 13,2 C 12,2 C 95 % 1010,0 hPa 0,0 l/m 0 min 0 min 0,0 UV-I 0 W/m 10,3 km/h (2 Bft)
28.05.2014 04:28 13,2 C 12,2 C 95 % 1010,1 hPa 0,0 l/m 0 min 0 min 0,0 UV-I 0 W/m 0,0 km/h (0 Bft)
28.05.2014 04:30 13,2 C 12,2 C 95 % 1010,0 hPa 0,0 l/m 0 min 0 min 0,0 UV-I 0 W/m 5,1 km/h (1 Bft)
28.05.2014 04:32 13,2 C 12,2 C 95 % 1010,1 hPa 0,0 l/m 0 min 0 min 0,0 UV-I 0 W/m 0,0 km/h (0 Bft)
28.05.2014 04:34 13,2 C 12,2 C 95 % 1010,1 hPa 0,0 l/m 0 min 0 min 0,0 UV-I 0 W/m 7,7 km/h (2 Bft)
28.05.2014 04:36 13,2 C 12,2 C 95 % 1010,0 hPa 0,0 l/m 0 min 0 min 0,0 UV-I 0 W/m 5,1 km/h (1 Bft)
28.05.2014 04:38 13,2 C 12,2 C 96 % 1009,9 hPa 0,0 l/m 0 min 0 min 0,0 UV-I 0 W/m 5,1 km/h (1 Bft)
28.05.2014 04:40 13,2 C 11,7 C 96 % 1010,0 hPa 0,0 l/m 0 min 0 min 0,0 UV-I 0 W/m 12,9 km/h (3 Bft)
28.05.2014 04:42 13,1 C 11,7 C 96 % 1010,0 hPa 0,0 l/m 0 min 0 min 0,0 UV-I 0 W/m 10,3 km/h (2 Bft)
28.05.2014 04:44 13,1 C 11,7 C 96 % 1010,0 hPa 0,0 l/m 0 min 0 min 0,0 UV-I 0 W/m 15,4 km/h (3 Bft)
28.05.2014 04:46 13,1 C 11,7 C 96 % 1010,0 hPa 0,0 l/m 0 min 0 min 0,0 UV-I 0 W/m 12,9 km/h (3 Bft)
28.05.2014 04:48 13,1 C 11,7 C 96 % 1010,0 hPa 0,0 l/m 0 min 0 min 0,0 UV-I 0 W/m 7,7 km/h (2 Bft)
28.05.2014 04:50 13,1 C 11,7 C 96 % 1010,0 hPa 0,0 l/m 0 min 0 min 0,0 UV-I 0 W/m 7,7 km/h (2 Bft)
28.05.2014 04:52 13,1 C 11,7 C 96 % 1010,0 hPa 0,0 l/m 0 min 0 min 0,0 UV-I 0 W/m 5,1 km/h (1 Bft)
28.05.2014 04:54 13,1 C 11,7 C 96 % 1010,0 hPa 0,0 l/m 0 min 0 min 0,0 UV-I 0 W/m 12,9 km/h (3 Bft)
28.05.2014 04:56 13,0 C 11,7 C 96 % 1010,0 hPa 0,0 l/m 0 min 0 min 0,0 UV-I 0 W/m 18,0 km/h (3 Bft)
28.05.2014 04:58 13,0 C 11,7 C 96 % 1010,1 hPa 0,0 l/m 0 min 0 min 0,0 UV-I 0 W/m 10,3 km/h (2 Bft)
28.05.2014 05:00 13,0 C 11,7 C 96 % 1010,1 hPa 0,0 l/m 0 min 0 min 0,0 UV-I 0 W/m 7,7 km/h (2 Bft)
28.05.2014 05:02 13,0 C 11,7 C 96 % 1010,1 hPa 0,0 l/m 0 min 0 min 0,0 UV-I 0 W/m 10,3 km/h (2 Bft)
28.05.2014 05:06 13,0 C 11,7 C 96 % 1010,1 hPa 0,0 l/m 0 min 0 min 0,0 UV-I 0 W/m 12,9 km/h (3 Bft)
28.05.2014 05:08 13,0 C 11,7 C 96 % 1010,0 hPa 0,0 l/m 0 min 0 min 0,0 UV-I 0 W/m 2,6 km/h (1 Bft)
28.05.2014 05:10 13,0 C 11,7 C 96 % 1010,0 hPa 0,0 l/m 0 min 0 min 0,0 UV-I 0 W/m 10,3 km/h (2 Bft)
28.05.2014 05:12 13,0 C 11,7 C 96 % 1010,0 hPa 0,0 l/m 0 min 0 min 0,0 UV-I 0 W/m 5,1 km/h (1 Bft)
28.05.2014 05:14 13,0 C 11,7 C 96 % 1010,0 hPa 0,0 l/m 0 min 0 min 0,0 UV-I 0 W/m 0,0 km/h (0 Bft)
28.05.2014 05:16 12,9 C 11,7 C 96 % 1010,0 hPa 0,0 l/m 0 min 0 min 0,0 UV-I 0 W/m 7,7 km/h (2 Bft)
28.05.2014 05:18 12,9 C 11,7 C 96 % 1010,0 hPa 0,0 l/m 0 min 0 min 0,0 UV-I 0 W/m 12,9 km/h (3 Bft)
28.05.2014 05:20 12,9 C 11,7 C 96 % 1010,1 hPa 0,0 l/m 0 min 0 min 0,0 UV-I 0 W/m 5,1 km/h (1 Bft)
28.05.2014 05:22 12,9 C 11,7 C 96 % 1010,1 hPa 0,0 l/m 0 min 0 min 0,0 UV-I 0 W/m 5,1 km/h (1 Bft)
28.05.2014 05:24 12,9 C 11,7 C 96 % 1010,1 hPa 0,0 l/m 0 min 0 min 0,0 UV-I 0 W/m 2,6 km/h (1 Bft)
28.05.2014 05:26 12,9 C 11,7 C 96 % 1010,2 hPa 0,0 l/m 0 min 0 min 0,0 UV-I 0 W/m 7,7 km/h (2 Bft)
28.05.2014 05:28 12,9 C 11,7 C 96 % 1010,2 hPa 0,0 l/m 0 min 0 min 0,0 UV-I 0 W/m 15,4 km/h (3 Bft)
28.05.2014 05:30 12,9 C 11,7 C 96 % 1010,1 hPa 0,0 l/m 0 min 0 min 0,0 UV-I 0 W/m 2,6 km/h (1 Bft)
28.05.2014 05:32 12,9 C 11,7 C 96 % 1010,2 hPa 0,0 l/m 0 min 0 min 0,0 UV-I 0 W/m 0,0 km/h (0 Bft)
28.05.2014 05:34 12,9 C 11,7 C 96 % 1010,1 hPa 0,0 l/m 0 min 0 min 0,0 UV-I 0 W/m 0,0 km/h (0 Bft)
28.05.2014 05:36 12,9 C 11,7 C 96 % 1010,2 hPa 0,0 l/m 0 min 0 min 0,0 UV-I 0 W/m 12,9 km/h (3 Bft)
28.05.2014 05:38 12,9 C 11,7 C 96 % 1010,2 hPa 0,0 l/m 0 min 0 min 0,0 UV-I 0 W/m 12,9 km/h (3 Bft)
28.05.2014 05:40 12,8 C 11,7 C 96 % 1010,2 hPa 0,0 l/m 0 min 0 min 0,0 UV-I 0 W/m 12,9 km/h (3 Bft)
28.05.2014 05:42 12,9 C 11,7 C 96 % 1010,2 hPa 0,0 l/m 0 min 0 min 0,0 UV-I 0 W/m 2,6 km/h (1 Bft)
28.05.2014 05:44 12,8 C 11,7 C 96 % 1010,2 hPa 0,0 l/m 0 min 0 min 0,0 UV-I 0 W/m 12,9 km/h (3 Bft)
28.05.2014 05:46 12,8 C 11,7 C 96 % 1010,1 hPa 0,0 l/m 0 min 0 min 0,0 UV-I 0 W/m 10,3 km/h (2 Bft)
28.05.2014 05:48 12,8 C 11,7 C 96 % 1010,2 hPa 0,0 l/m 0 min 0 min 0,0 UV-I 0 W/m 7,7 km/h (2 Bft)
28.05.2014 05:50 12,8 C 11,7 C 96 % 1010,2 hPa 0,0 l/m 0 min 0 min 0,0 UV-I 0 W/m 5,1 km/h (1 Bft)
28.05.2014 05:52 12,8 C 11,7 C 96 % 1010,2 hPa 0,0 l/m 0 min 0 min 0,0 UV-I 0 W/m 10,3 km/h (2 Bft)
28.05.2014 05:54 12,8 C 11,7 C 96 % 1010,2 hPa 0,0 l/m 0 min 0 min 0,0 UV-I 0 W/m 2,6 km/h (1 Bft)
28.05.2014 05:56 12,8 C 11,7 C 97 % 1010,2 hPa 0,0 l/m 0 min 0 min 0,0 UV-I 0 W/m 5,1 km/h (1 Bft)
28.05.2014 05:58 12,8 C 11,7 C 96 % 1010,3 hPa 0,0 l/m 0 min 0 min 0,0 UV-I 5 W/m 0,0 km/h (0 Bft)
28.05.2014 06:00 12,8 C 11,7 C 96 % 1010,3 hPa 0,0 l/m 0 min 0 min 0,0 UV-I 5 W/m 5,1 km/h (1 Bft)
28.05.2014 06:02 12,8 C 11,7 C 97 % 1010,3 hPa 0,0 l/m 0 min 0 min 0,0 UV-I 5 W/m 5,1 km/h (1 Bft)
28.05.2014 06:06 12,7 C 11,7 C 97 % 1010,3 hPa 0,0 l/m 0 min 0 min 0,0 UV-I 5 W/m 7,7 km/h (2 Bft)
28.05.2014 06:08 12,7 C 11,7 C 97 % 1010,3 hPa 0,0 l/m 0 min 0 min 0,0 UV-I 7 W/m 7,7 km/h (2 Bft)
28.05.2014 06:10 12,7 C 11,7 C 97 % 1010,2 hPa 0,0 l/m 0 min 0 min 0,0 UV-I 5 W/m 5,1 km/h (1 Bft)
28.05.2014 06:12 12,7 C 11,7 C 97 % 1010,2 hPa 0,0 l/m 0 min 0 min 0,0 UV-I 7 W/m 0,0 km/h (0 Bft)
28.05.2014 06:14 12,7 C 11,7 C 97 % 1010,2 hPa 0,0 l/m 0 min 0 min 0,0 UV-I 7 W/m 7,7 km/h (2 Bft)
28.05.2014 06:16 12,7 C 11,7 C 97 % 1010,2 hPa 0,0 l/m 0 min 0 min 0,0 UV-I 9 W/m 5,1 km/h (1 Bft)
28.05.2014 06:18 12,7 C 11,7 C 97 % 1010,2 hPa 0,0 l/m 0 min 0 min 0,0 UV-I 9 W/m 0,0 km/h (0 Bft)
28.05.2014 06:20 12,7 C 11,7 C 97 % 1010,2 hPa 0,0 l/m 0 min 0 min 0,0 UV-I 11 W/m 0,0 km/h (0 Bft)
28.05.2014 06:22 12,7 C 11,7 C 97 % 1010,2 hPa 0,0 l/m 0 min 0 min 0,0 UV-I 11 W/m 5,1 km/h (1 Bft)
28.05.2014 06:24 12,7 C 11,7 C 97 % 1010,1 hPa 0,0 l/m 0 min 0 min 0,0 UV-I 11 W/m 0,0 km/h (0 Bft)
28.05.2014 06:26 12,7 C 11,7 C 97 % 1010,2 hPa 0,0 l/m 0 min 0 min 0,0 UV-I 12 W/m 10,3 km/h (2 Bft)
28.05.2014 06:28 12,7 C 11,7 C 97 % 1010,2 hPa 0,0 l/m 0 min 0 min 0,0 UV-I 12 W/m 2,6 km/h (1 Bft)
28.05.2014 06:30 12,6 C 11,7 C 97 % 1010,1 hPa 0,0 l/m 0 min 0 min 0,0 UV-I 14 W/m 10,3 km/h (2 Bft)
28.05.2014 06:32 12,6 C 11,7 C 97 % 1010,1 hPa 0,0 l/m 0 min 0 min 0,0 UV-I 14 W/m 10,3 km/h (2 Bft)
28.05.2014 06:34 12,6 C 11,7 C 97 % 1010,2 hPa 0,0 l/m 0 min 0 min 0,0 UV-I 14 W/m 15,4 km/h (3 Bft)
28.05.2014 06:36 12,6 C 11,7 C 97 % 1010,2 hPa 0,0 l/m 0 min 0 min 0,0 UV-I 16 W/m 7,7 km/h (2 Bft)
28.05.2014 06:38 12,6 C 11,7 C 97 % 1010,2 hPa 0,0 l/m 0 min 0 min 0,0 UV-I 18 W/m 7,7 km/h (2 Bft)
28.05.2014 06:40 12,6 C 11,7 C 97 % 1010,2 hPa 0,0 l/m 0 min 0 min 0,0 UV-I 18 W/m 0,0 km/h (0 Bft)
28.05.2014 06:42 12,6 C 11,7 C 97 % 1010,2 hPa 0,0 l/m 0 min 0 min 0,0 UV-I 19 W/m 7,7 km/h (2 Bft)
28.05.2014 06:44 12,6 C 11,7 C 97 % 1010,2 hPa 0,0 l/m 0 min 0 min 0,0 UV-I 19 W/m 7,7 km/h (2 Bft)
28.05.2014 06:46 12,6 C 11,7 C 97 % 1010,2 hPa 0,0 l/m 0 min 0 min 0,0 UV-I 19 W/m 2,6 km/h (1 Bft)
28.05.2014 06:48 12,6 C 11,7 C 97 % 1010,2 hPa 0,0 l/m 0 min 0 min 0,0 UV-I 18 W/m 15,4 km/h (3 Bft)
28.05.2014 06:50 12,6 C 11,7 C 97 % 1010,2 hPa 0,0 l/m 0 min 0 min 0,0 UV-I 18 W/m 15,4 km/h (3 Bft)
28.05.2014 06:52 12,7 C 11,7 C 97 % 1010,2 hPa 0,0 l/m 0 min 0 min 0,0 UV-I 18 W/m 2,6 km/h (1 Bft)
28.05.2014 06:54 12,7 C 11,7 C 97 % 1010,2 hPa 0,0 l/m 0 min 0 min 0,0 UV-I 19 W/m 0,0 km/h (0 Bft)
28.05.2014 06:56 12,7 C 11,7 C 97 % 1010,2 hPa 0,0 l/m 0 min 0 min 0,0 UV-I 21 W/m 12,9 km/h (3 Bft)
28.05.2014 06:58 12,7 C 11,7 C 96 % 1010,3 hPa 0,0 l/m 0 min 0 min 0,0 UV-I 21 W/m 7,7 km/h (2 Bft)
28.05.2014 07:00 12,7 C 11,7 C 96 % 1010,3 hPa 0,0 l/m 0 min 0 min 0,0 UV-I 23 W/m 10,3 km/h (2 Bft)
28.05.2014 07:02 12,7 C 11,7 C 96 % 1010,3 hPa 0,0 l/m 0 min 0 min 0,0 UV-I 23 W/m 15,4 km/h (3 Bft)
28.05.2014 07:06 12,7 C 11,7 C 96 % 1010,3 hPa 0,0 l/m 0 min 0 min 0,0 UV-I 21 W/m 18,0 km/h (3 Bft)
28.05.2014 07:08 12,7 C 11,7 C 96 % 1010,3 hPa 0,0 l/m 0 min 0 min 0,0 UV-I 21 W/m 10,3 km/h (2 Bft)
28.05.2014 07:10 12,7 C 11,7 C 96 % 1010,4 hPa 0,0 l/m 0 min 0 min 0,0 UV-I 21 W/m 7,7 km/h (2 Bft)
28.05.2014 07:12 12,7 C 11,7 C 96 % 1010,3 hPa 0,0 l/m 0 min 0 min 0,0 UV-I 21 W/m 12,9 km/h (3 Bft)
28.05.2014 07:14 12,7 C 11,7 C 96 % 1010,4 hPa 0,0 l/m 0 min 0 min 0,0 UV-I 23 W/m 18,0 km/h (3 Bft)
28.05.2014 07:16 12,7 C 11,7 C 96 % 1010,4 hPa 0,0 l/m 0 min 0 min 0,0 UV-I 23 W/m 10,3 km/h (2 Bft)
28.05.2014 07:18 12,7 C 11,7 C 95 % 1010,3 hPa 0,0 l/m 0 min 0 min 0,0 UV-I 26 W/m 5,1 km/h (1 Bft)
28.05.2014 07:20 12,8 C 11,7 C 95 % 1010,3 hPa 0,0 l/m 0 min 0 min 0,0 UV-I 26 W/m 10,3 km/h (2 Bft)
28.05.2014 07:22 12,7 C 11,7 C 95 % 1010,3 hPa 0,0 l/m 0 min 0 min 0,0 UV-I 26 W/m 18,0 km/h (3 Bft)
28.05.2014 07:24 12,8 C 11,7 C 95 % 1010,3 hPa 0,0 l/m 0 min 0 min 0,0 UV-I 28 W/m 15,4 km/h (3 Bft)
28.05.2014 07:26 12,8 C 11,7 C 95 % 1010,3 hPa 0,0 l/m 0 min 0 min 0,0 UV-I 28 W/m 12,9 km/h (3 Bft)
28.05.2014 07:28 12,8 C 11,7 C 95 % 1010,4 hPa 0,0 l/m 0 min 0 min 0,0 UV-I 30 W/m 2,6 km/h (1 Bft)
28.05.2014 07:30 12,8 C 11,7 C 95 % 1010,4 hPa 0,0 l/m 0 min 0 min 0,0 UV-I 30 W/m 2,6 km/h (1 Bft)
28.05.2014 07:32 12,8 C 11,7 C 95 % 1010,4 hPa 0,0 l/m 0 min 0 min 0,0 UV-I 30 W/m 15,4 km/h (3 Bft)
28.05.2014 07:34 12,8 C 11,7 C 94 % 1010,4 hPa 0,0 l/m 0 min 0 min 0,0 UV-I 30 W/m 2,6 km/h (1 Bft)
28.05.2014 07:36 12,8 C 11,7 C 94 % 1010,4 hPa 0,0 l/m 0 min 0 min 0,0 UV-I 30 W/m 12,9 km/h (3 Bft)
28.05.2014 07:38 12,9 C 11,7 C 95 % 1010,4 hPa 0,0 l/m 0 min 0 min 0,0 UV-I 32 W/m 2,6 km/h (1 Bft)
28.05.2014 07:40 12,9 C 11,7 C 95 % 1010,4 hPa 0,0 l/m 0 min 0 min 0,0 UV-I 33 W/m 0,0 km/h (0 Bft)
28.05.2014 07:42 12,9 C 11,7 C 95 % 1010,3 hPa 0,0 l/m 0 min 0 min 0,0 UV-I 32 W/m 2,6 km/h (1 Bft)
28.05.2014 07:44 12,8 C 11,7 C 94 % 1010,4 hPa 0,0 l/m 0 min 0 min 0,0 UV-I 32 W/m 7,7 km/h (2 Bft)
28.05.2014 07:46 12,8 C 12,2 C 94 % 1010,4 hPa 0,0 l/m 0 min 0 min 0,0 UV-I 30 W/m 2,6 km/h (1 Bft)
28.05.2014 07:48 12,8 C 12,2 C 94 % 1010,5 hPa 0,0 l/m 0 min 0 min 0,0 UV-I 32 W/m 5,1 km/h (1 Bft)
28.05.2014 07:50 12,8 C 12,2 C 94 % 1010,4 hPa 0,0 l/m 0 min 0 min 0,0 UV-I 32 W/m 15,4 km/h (3 Bft)
28.05.2014 07:52 12,8 C 11,7 C 94 % 1010,5 hPa 0,0 l/m 0 min 0 min 0,0 UV-I 32 W/m 10,3 km/h (2 Bft)
28.05.2014 07:54 12,8 C 11,7 C 94 % 1010,5 hPa 0,0 l/m 0 min 0 min 0,0 UV-I 32 W/m 18,0 km/h (3 Bft)
28.05.2014 07:56 12,8 C 11,7 C 94 % 1010,5 hPa 0,0 l/m 0 min 0 min 0,0 UV-I 32 W/m 7,7 km/h (2 Bft)
28.05.2014 07:58 12,8 C 11,7 C 94 % 1010,6 hPa 0,0 l/m 0 min 0 min 0,0 UV-I 33 W/m 2,6 km/h (1 Bft)
28.05.2014 08:00 12,8 C 11,7 C 94 % 1010,7 hPa 0,0 l/m 0 min 0 min 0,0 UV-I 35 W/m 7,7 km/h (2 Bft)
28.05.2014 08:02 12,8 C 11,7 C 94 % 1010,6 hPa 0,0 l/m 0 min 0 min 0,0 UV-I 37 W/m 2,6 km/h (1 Bft)
28.05.2014 08:06 12,9 C 12,2 C 94 % 1010,7 hPa 0,0 l/m 0 min 0 min 0,0 UV-I 37 W/m 10,3 km/h (2 Bft)
28.05.2014 08:08 12,9 C 12,2 C 94 % 1010,6 hPa 0,0 l/m 0 min 0 min 0,0 UV-I 37 W/m 15,4 km/h (3 Bft)
28.05.2014 08:10 12,9 C 12,2 C 94 % 1010,5 hPa 0,0 l/m 0 min 0 min 0,0 UV-I 35 W/m 7,7 km/h (2 Bft)
28.05.2014 08:12 12,9 C 11,7 C 94 % 1010,5 hPa 0,0 l/m 0 min 0 min 0,0 UV-I 37 W/m 7,7 km/h (2 Bft)
28.05.2014 08:14 12,9 C 11,7 C 94 % 1010,6 hPa 0,0 l/m 0 min 0 min 0,0 UV-I 39 W/m 15,4 km/h (3 Bft)
28.05.2014 08:16 12,9 C 12,2 C 94 % 1010,6 hPa 0,0 l/m 0 min 0 min 0,0 UV-I 39 W/m 7,7 km/h (2 Bft)
28.05.2014 08:18 12,9 C 12,2 C 94 % 1010,6 hPa 0,0 l/m 0 min 0 min 0,0 UV-I 40 W/m 15,4 km/h (3 Bft)
28.05.2014 08:20 12,9 C 12,2 C 94 % 1010,6 hPa 0,0 l/m 0 min 0 min 0,0 UV-I 42 W/m 15,4 km/h (3 Bft)
28.05.2014 08:22 12,9 C 12,2 C 94 % 1010,7 hPa 0,0 l/m 0 min 0 min 0,0 UV-I 46 W/m 0,0 km/h (0 Bft)
28.05.2014 08:24 12,9 C 12,2 C 93 % 1010,7 hPa 0,0 l/m 0 min 0 min 0,0 UV-I 49 W/m 0,0 km/h (0 Bft)
28.05.2014 08:26 13,0 C 12,2 C 94 % 1010,6 hPa 0,0 l/m 0 min 0 min 0,0 UV-I 53 W/m 5,1 km/h (1 Bft)
28.05.2014 08:28 13,0 C 12,2 C 94 % 1010,6 hPa 0,0 l/m 0 min 0 min 0,0 UV-I 62 W/m 2,6 km/h (1 Bft)
28.05.2014 08:30 13,0 C 12,2 C 94 % 1010,6 hPa 0,0 l/m 0 min 0 min 0,0 UV-I 67 W/m 2,6 km/h (1 Bft)
28.05.2014 08:32 13,0 C 12,2 C 94 % 1010,5 hPa 0,0 l/m 0 min 0 min 0,0 UV-I 70 W/m 7,7 km/h (2 Bft)
28.05.2014 08:34 13,0 C 12,2 C 94 % 1010,5 hPa 0,0 l/m 0 min 0 min 0,0 UV-I 76 W/m 7,7 km/h (2 Bft)
28.05.2014 08:36 13,0 C 12,2 C 94 % 1010,6 hPa 0,0 l/m 0 min 0 min 0,0 UV-I 79 W/m 5,1 km/h (1 Bft)
28.05.2014 08:38 13,1 C 12,2 C 94 % 1010,6 hPa 0,0 l/m 0 min 0 min 0,0 UV-I 81 W/m 7,7 km/h (2 Bft)
28.05.2014 08:40 13,1 C 12,2 C 94 % 1010,6 hPa 0,0 l/m 0 min 0 min 0,0 UV-I 83 W/m 10,3 km/h (2 Bft)
28.05.2014 08:42 13,1 C 12,2 C 94 % 1010,6 hPa 0,0 l/m 0 min 0 min 0,0 UV-I 84 W/m 12,9 km/h (3 Bft)
28.05.2014 08:44 13,1 C 12,2 C 94 % 1010,6 hPa 0,0 l/m 0 min 0 min 0,0 UV-I 90 W/m 15,4 km/h (3 Bft)
28.05.2014 08:46 13,1 C 12,2 C 93 % 1010,6 hPa 0,0 l/m 0 min 0 min 0,0 UV-I 98 W/m 12,9 km/h (3 Bft)
28.05.2014 08:48 13,1 C 12,2 C 93 % 1010,7 hPa 0,0 l/m 0 min 0 min 0,0 UV-I 98 W/m 12,9 km/h (3 Bft)
28.05.2014 08:50 13,2 C 12,2 C 94 % 1010,7 hPa 0,0 l/m 0 min 0 min 0,0 UV-I 98 W/m 0,0 km/h (0 Bft)
28.05.2014 08:52 13,2 C 12,8 C 94 % 1010,7 hPa 0,0 l/m 0 min 0 min 0,0 UV-I 95 W/m 7,7 km/h (2 Bft)
28.05.2014 08:54 13,2 C 12,8 C 93 % 1010,7 hPa 0,0 l/m 0 min 0 min 0,0 UV-I 91 W/m 7,7 km/h (2 Bft)
28.05.2014 08:56 13,2 C 12,8 C 93 % 1010,8 hPa 0,0 l/m 0 min 0 min 0,0 UV-I 88 W/m 10,3 km/h (2 Bft)
28.05.2014 08:58 13,3 C 12,8 C 93 % 1010,8 hPa 0,0 l/m 0 min 0 min 0,0 UV-I 90 W/m 7,7 km/h (2 Bft)
28.05.2014 09:00 13,3 C 12,8 C 93 % 1010,8 hPa 0,0 l/m 0 min 0 min 0,0 UV-I 88 W/m 0,0 km/h (0 Bft)
28.05.2014 09:02 13,3 C 12,8 C 93 % 1010,8 hPa 0,0 l/m 0 min 0 min 0,0 UV-I 91 W/m 5,1 km/h (1 Bft)
28.05.2014 09:06 13,4 C 12,8 C 93 % 1010,8 hPa 0,0 l/m 0 min 0 min 0,0 UV-I 93 W/m 10,3 km/h (2 Bft)
28.05.2014 09:08 13,4 C 12,8 C 93 % 1010,8 hPa 0,0 l/m 0 min 0 min 0,0 UV-I 90 W/m 0,0 km/h (0 Bft)
28.05.2014 09:10 13,4 C 12,8 C 93 % 1010,8 hPa 0,0 l/m 0 min 0 min 0,0 UV-I 84 W/m 0,0 km/h (0 Bft)
28.05.2014 09:12 13,4 C 12,8 C 93 % 1010,7 hPa 0,0 l/m 0 min 0 min 0,0 UV-I 88 W/m 10,3 km/h (2 Bft)
28.05.2014 09:14 13,4 C 12,8 C 93 % 1010,8 hPa 0,0 l/m 0 min 0 min 0,0 UV-I 84 W/m 0,0 km/h (0 Bft)
28.05.2014 09:16 13,4 C 12,8 C 93 % 1010,8 hPa 0,0 l/m 0 min 0 min 0,0 UV-I 83 W/m 7,7 km/h (2 Bft)
28.05.2014 09:18 13,5 C 12,8 C 93 % 1010,8 hPa 0,0 l/m 0 min 0 min 0,0 UV-I 84 W/m 2,6 km/h (1 Bft)
28.05.2014 09:20 13,4 C 12,8 C 93 % 1010,8 hPa 0,0 l/m 0 min 0 min 0,0 UV-I 79 W/m 10,3 km/h (2 Bft)
28.05.2014 09:22 13,4 C 12,8 C 93 % 1010,8 hPa 0,0 l/m 0 min 0 min 0,0 UV-I 77 W/m 0,0 km/h (0 Bft)
28.05.2014 09:24 13,4 C 12,8 C 93 % 1010,8 hPa 0,0 l/m 0 min 0 min 0,0 UV-I 76 W/m 12,9 km/h (3 Bft)
28.05.2014 09:26 13,4 C 12,8 C 93 % 1010,8 hPa 0,0 l/m 0 min 0 min 0,0 UV-I 69 W/m 10,3 km/h (2 Bft)
28.05.2014 09:28 13,4 C 12,8 C 93 % 1010,8 hPa 0,0 l/m 0 min 0 min 0,0 UV-I 69 W/m 5,1 km/h (1 Bft)
28.05.2014 09:30 13,4 C 12,8 C 93 % 1010,8 hPa 0,0 l/m 0 min 0 min 0,0 UV-I 65 W/m 0,0 km/h (0 Bft)
28.05.2014 09:32 13,4 C 12,8 C 93 % 1010,8 hPa 0,0 l/m 0 min 0 min 0,0 UV-I 65 W/m 2,6 km/h (1 Bft)
28.05.2014 09:34 13,4 C 12,8 C 93 % 1010,8 hPa 0,0 l/m 0 min 0 min 0,0 UV-I 74 W/m 10,3 km/h (2 Bft)
28.05.2014 09:36 13,4 C 12,8 C 93 % 1010,8 hPa 0,0 l/m 0 min 0 min 0,0 UV-I 79 W/m 7,7 km/h (2 Bft)
28.05.2014 09:38 13,5 C 12,8 C 93 % 1010,8 hPa 0,0 l/m 0 min 0 min 0,0 UV-I 81 W/m 7,7 km/h (2 Bft)
28.05.2014 09:40 13,5 C 12,8 C 93 % 1010,8 hPa 0,0 l/m 0 min 0 min 0,0 UV-I 84 W/m 7,7 km/h (2 Bft)
28.05.2014 09:42 13,5 C 12,8 C 93 % 1010,8 hPa 0,0 l/m 0 min 0 min 0,0 UV-I 90 W/m 2,6 km/h (1 Bft)
28.05.2014 09:44 13,5 C 12,8 C 93 % 1010,8 hPa 0,0 l/m 0 min 0 min 0,0 UV-I 88 W/m 5,1 km/h (1 Bft)
28.05.2014 09:46 13,6 C 12,8 C 93 % 1010,8 hPa 0,0 l/m 0 min 0 min 0,0 UV-I 88 W/m 10,3 km/h (2 Bft)
28.05.2014 09:48 13,6 C 12,8 C 93 % 1010,8 hPa 0,0 l/m 0 min 0 min 0,0 UV-I 88 W/m 5,1 km/h (1 Bft)
28.05.2014 09:50 13,6 C 12,8 C 93 % 1010,9 hPa 0,0 l/m 0 min 0 min 0,0 UV-I 88 W/m 0,0 km/h (0 Bft)
28.05.2014 09:52 13,6 C 12,8 C 93 % 1010,9 hPa 0,0 l/m 0 min 0 min 0,0 UV-I 86 W/m 2,6 km/h (1 Bft)
28.05.2014 09:54 13,7 C 12,8 C 93 % 1010,8 hPa 0,0 l/m 0 min 0 min 0,0 UV-I 91 W/m 0,0 km/h (0 Bft)
28.05.2014 09:56 13,7 C 12,8 C 93 % 1010,8 hPa 0,0 l/m 0 min 0 min 0,0 UV-I 90 W/m 10,3 km/h (2 Bft)
28.05.2014 09:58 13,7 C 12,8 C 92 % 1010,9 hPa 0,0 l/m 0 min 0 min 0,0 UV-I 91 W/m 10,3 km/h (2 Bft)
28.05.2014 10:00 13,7 C 12,8 C 92 % 1010,9 hPa 0,0 l/m 0 min 0 min 0,0 UV-I 98 W/m 0,0 km/h (0 Bft)
28.05.2014 10:02 13,7 C 12,8 C 93 % 1010,9 hPa 0,0 l/m 0 min 0 min 0,0 UV-I 120 W/m 2,6 km/h (1 Bft)
28.05.2014 10:06 13,8 C 13,3 C 92 % 1010,9 hPa 0,0 l/m 0 min 0 min 0,0 UV-I 113 W/m 10,3 km/h (2 Bft)
28.05.2014 10:08 13,8 C 13,3 C 92 % 1010,8 hPa 0,0 l/m 0 min 0 min 0,0 UV-I 146 W/m 7,7 km/h (2 Bft)
28.05.2014 10:10 13,8 C 13,3 C 92 % 1010,8 hPa 0,0 l/m 0 min 0 min 0,0 UV-I 141 W/m 25,7 km/h (4 Bft)
28.05.2014 10:12 13,8 C 13,3 C 92 % 1010,8 hPa 0,0 l/m 0 min 0 min 0,0 UV-I 142 W/m 10,3 km/h (2 Bft)
28.05.2014 10:14 13,9 C 13,3 C 92 % 1010,8 hPa 0,0 l/m 0 min 0 min 0,0 UV-I 135 W/m 5,1 km/h (1 Bft)
28.05.2014 10:16 13,9 C 13,3 C 91 % 1010,8 hPa 0,0 l/m 0 min 0 min 0,0 UV-I 127 W/m 5,1 km/h (1 Bft)
28.05.2014 10:18 14,0 C 13,3 C 91 % 1010,8 hPa 0,0 l/m 0 min 0 min 0,0 UV-I 125 W/m 2,6 km/h (1 Bft)
28.05.2014 10:20 14,0 C 13,3 C 91 % 1010,9 hPa 0,0 l/m 0 min 0 min 0,0 UV-I 121 W/m 5,1 km/h (1 Bft)
28.05.2014 10:22 14,0 C 13,3 C 91 % 1010,9 hPa 0,0 l/m 0 min 0 min 0,0 UV-I 118 W/m 7,7 km/h (2 Bft)
28.05.2014 10:24 14,1 C 13,3 C 91 % 1010,9 hPa 0,0 l/m 0 min 0 min 0,0 UV-I 109 W/m 2,6 km/h (1 Bft)
28.05.2014 10:26 14,2 C 13,3 C 91 % 1010,8 hPa 0,0 l/m 0 min 0 min 0,0 UV-I 111 W/m 0,0 km/h (0 Bft)
28.05.2014 10:28 14,2 C 13,3 C 91 % 1011,0 hPa 0,0 l/m 0 min 0 min 0,0 UV-I 113 W/m 7,7 km/h (2 Bft)
28.05.2014 10:30 14,2 C 13,3 C 91 % 1010,9 hPa 0,0 l/m 0 min 0 min 0,0 UV-I 111 W/m 5,1 km/h (1 Bft)
28.05.2014 10:32 14,2 C 13,3 C 91 % 1010,9 hPa 0,0 l/m 0 min 0 min 0,0 UV-I 100 W/m 5,1 km/h (1 Bft)
28.05.2014 10:34 14,2 C 13,3 C 91 % 1011,0 hPa 0,0 l/m 0 min 2 min 0,0 UV-I 98 W/m 10,3 km/h (2 Bft)
28.05.2014 10:36 14,2 C 13,3 C 91 % 1010,9 hPa 0,0 l/m 0 min 2 min 0,0 UV-I 114 W/m 0,0 km/h (0 Bft)
28.05.2014 10:38 14,2 C 13,3 C 91 % 1010,9 hPa 0,0 l/m 0 min 2 min 0,0 UV-I 116 W/m 5,1 km/h (1 Bft)
28.05.2014 10:40 14,2 C 13,3 C 91 % 1010,9 hPa 0,0 l/m 0 min 2 min 0,0 UV-I 118 W/m 0,0 km/h (0 Bft)
28.05.2014 10:42 14,2 C 13,3 C 91 % 1010,9 hPa 0,0 l/m 0 min 2 min 0,0 UV-I 114 W/m 5,1 km/h (1 Bft)
28.05.2014 10:44 14,2 C 13,3 C 91 % 1010,9 hPa 0,0 l/m 0 min 2 min 0,0 UV-I 118 W/m 12,9 km/h (3 Bft)
28.05.2014 10:46 14,2 C 12,8 C 91 % 1011,0 hPa 0,0 l/m 0 min 2 min 0,0 UV-I 123 W/m 0,0 km/h (0 Bft)
28.05.2014 10:48 14,2 C 12,8 C 91 % 1011,0 hPa 0,0 l/m 0 min 0 min 0,0 UV-I 127 W/m 10,3 km/h (2 Bft)
28.05.2014 10:50 14,2 C 12,8 C 91 % 1010,9 hPa 0,0 l/m 0 min 0 min 0,0 UV-I 130 W/m 10,3 km/h (2 Bft)
28.05.2014 10:52 14,2 C 12,8 C 91 % 1011,0 hPa 0,0 l/m 0 min 0 min 0,0 UV-I 137 W/m 10,3 km/h (2 Bft)
28.05.2014 10:54 14,2 C 12,8 C 91 % 1011,0 hPa 0,0 l/m 0 min 2 min 0,0 UV-I 144 W/m 12,9 km/h (3 Bft)
28.05.2014 10:56 14,2 C 12,8 C 92 % 1011,0 hPa 0,0 l/m 0 min 2 min 0,0 UV-I 144 W/m 7,7 km/h (2 Bft)
28.05.2014 10:58 14,2 C 12,8 C 92 % 1011,0 hPa 0,0 l/m 0 min 2 min 0,0 UV-I 148 W/m 10,3 km/h (2 Bft)
28.05.2014 11:00 14,1 C 12,8 C 91 % 1011,0 hPa 0,0 l/m 0 min 2 min 0,0 UV-I 162 W/m 10,3 km/h (2 Bft)
28.05.2014 11:02 14,1 C 12,8 C 91 % 1011,0 hPa 0,0 l/m 0 min 0 min 0,0 UV-I 174 W/m 12,9 km/h (3 Bft)
28.05.2014 11:06 14,2 C 12,8 C 91 % 1011,0 hPa 0,0 l/m 0 min 2 min 0,0 UV-I 171 W/m 7,7 km/h (2 Bft)
28.05.2014 11:08 14,2 C 13,3 C 91 % 1011,0 hPa 0,0 l/m 0 min 2 min 0,0 UV-I 167 W/m 5,1 km/h (1 Bft)
28.05.2014 11:10 14,2 C 13,3 C 91 % 1011,0 hPa 0,0 l/m 0 min 2 min 0,0 UV-I 165 W/m 7,7 km/h (2 Bft)
28.05.2014 11:12 14,2 C 13,3 C 92 % 1011,0 hPa 0,0 l/m 0 min 2 min 0,0 UV-I 171 W/m 0,0 km/h (0 Bft)
28.05.2014 11:14 14,2 C 13,3 C 92 % 1011,0 hPa 0,0 l/m 0 min 2 min 0,0 UV-I 176 W/m 7,7 km/h (2 Bft)
28.05.2014 11:16 14,2 C 13,3 C 91 % 1011,0 hPa 0,0 l/m 0 min 2 min 0,0 UV-I 183 W/m 7,7 km/h (2 Bft)
28.05.2014 11:18 14,2 C 13,3 C 92 % 1011,0 hPa 0,0 l/m 0 min 2 min 0,0 UV-I 192 W/m 5,1 km/h (1 Bft)
28.05.2014 11:20 14,3 C 13,3 C 92 % 1011,0 hPa 0,0 l/m 0 min 2 min 0,0 UV-I 199 W/m 0,0 km/h (0 Bft)
28.05.2014 11:22 14,4 C 13,3 C 92 % 1011,0 hPa 0,0 l/m 0 min 2 min 0,0 UV-I 207 W/m 2,6 km/h (1 Bft)
28.05.2014 11:24 14,4 C 13,3 C 92 % 1011,0 hPa 0,0 l/m 0 min 2 min 0,5 UV-I 218 W/m 5,1 km/h (1 Bft)
28.05.2014 11:26 14,5 C 13,3 C 92 % 1011,0 hPa 0,0 l/m 0 min 2 min 0,5 UV-I 211 W/m 2,6 km/h (1 Bft)
28.05.2014 11:28 14,5 C 13,9 C 92 % 1011,1 hPa 0,0 l/m 0 min 2 min 0,6 UV-I 221 W/m 0,0 km/h (0 Bft)
28.05.2014 11:30 14,6 C 13,9 C 92 % 1011,0 hPa 0,0 l/m 0 min 2 min 0,5 UV-I 221 W/m 0,0 km/h (0 Bft)
28.05.2014 11:32 14,5 C 13,9 C 92 % 1011,0 hPa 0,0 l/m 0 min 2 min 0,5 UV-I 211 W/m 2,6 km/h (1 Bft)
28.05.2014 11:34 14,5 C 13,9 C 92 % 1011,0 hPa 0,0 l/m 0 min 2 min 0,0 UV-I 200 W/m 2,6 km/h (1 Bft)
28.05.2014 11:36 14,6 C 13,9 C 93 % 1011,1 hPa 0,0 l/m 0 min 2 min 0,5 UV-I 199 W/m 0,0 km/h (0 Bft)
28.05.2014 11:38 14,6 C 13,9 C 93 % 1011,0 hPa 0,0 l/m 0 min 2 min 0,0 UV-I 185 W/m 0,0 km/h (0 Bft)
28.05.2014 11:40 14,6 C 13,9 C 93 % 1011,1 hPa 0,0 l/m 0 min 2 min 0,0 UV-I 172 W/m 5,1 km/h (1 Bft)
28.05.2014 11:42 14,5 C 13,3 C 93 % 1011,1 hPa 0,0 l/m 0 min 2 min 0,0 UV-I 162 W/m 0,0 km/h (0 Bft)
28.05.2014 11:44 14,4 C 13,3 C 93 % 1011,1 hPa 0,0 l/m 0 min 2 min 0,0 UV-I 160 W/m 5,1 km/h (1 Bft)
28.05.2014 11:46 14,4 C 13,3 C 93 % 1011,1 hPa 0,0 l/m 0 min 2 min 0,0 UV-I 148 W/m 2,6 km/h (1 Bft)
28.05.2014 11:48 14,4 C 13,3 C 93 % 1011,2 hPa 0,0 l/m 0 min 0 min 0,0 UV-I 132 W/m 2,6 km/h (1 Bft)
28.05.2014 11:50 14,4 C 13,3 C 93 % 1011,1 hPa 0,0 l/m 0 min 0 min 0,0 UV-I 130 W/m 2,6 km/h (1 Bft)
28.05.2014 11:52 14,3 C 13,3 C 93 % 1011,2 hPa 0,0 l/m 0 min 0 min 0,0 UV-I 137 W/m 2,6 km/h (1 Bft)
28.05.2014 11:54 14,3 C 13,3 C 93 % 1011,2 hPa 0,0 l/m 0 min 0 min 0,0 UV-I 149 W/m 0,0 km/h (0 Bft)
28.05.2014 11:56 14,4 C 13,3 C 94 % 1011,2 hPa 0,0 l/m 0 min 0 min 0,0 UV-I 153 W/m 2,6 km/h (1 Bft)
28.05.2014 11:58 14,4 C 13,3 C 94 % 1011,2 hPa 0,0 l/m 0 min 0 min 0,0 UV-I 153 W/m 0,0 km/h (0 Bft)
28.05.2014 12:00 14,3 C 13,3 C 94 % 1011,2 hPa 0,0 l/m 0 min 0 min 0,0 UV-I 160 W/m 0,0 km/h (0 Bft)
28.05.2014 12:02 14,3 C 13,3 C 94 % 1011,2 hPa 0,0 l/m 0 min 0 min 0,0 UV-I 158 W/m 5,1 km/h (1 Bft)
28.05.2014 12:06 14,4 C 13,9 C 94 % 1011,2 hPa 0,0 l/m 0 min 0 min 0,0 UV-I 144 W/m 10,3 km/h (2 Bft)
28.05.2014 12:08 14,4 C 13,3 C 93 % 1011,2 hPa 0,0 l/m 0 min 0 min 0,0 UV-I 130 W/m 2,6 km/h (1 Bft)
28.05.2014 12:10 14,3 C 13,3 C 93 % 1011,2 hPa 0,0 l/m 0 min 0 min 0,0 UV-I 137 W/m 0,0 km/h (0 Bft)
28.05.2014 12:12 14,4 C 13,3 C 93 % 1011,3 hPa 0,0 l/m 0 min 0 min 0,0 UV-I 128 W/m 2,6 km/h (1 Bft)
28.05.2014 12:14 14,4 C 13,3 C 93 % 1011,2 hPa 0,0 l/m 0 min 0 min 0,0 UV-I 134 W/m 2,6 km/h (1 Bft)
28.05.2014 12:16 14,4 C 13,3 C 93 % 1011,3 hPa 0,0 l/m 0 min 0 min 0,0 UV-I 139 W/m 0,0 km/h (0 Bft)
28.05.2014 12:18 14,4 C 13,3 C 93 % 1011,3 hPa 0,0 l/m 0 min 0 min 0,0 UV-I 149 W/m 5,1 km/h (1 Bft)
28.05.2014 12:20 14,4 C 13,3 C 92 % 1011,3 hPa 0,0 l/m 0 min 0 min 0,0 UV-I 158 W/m 0,0 km/h (0 Bft)
28.05.2014 12:22 14,3 C 13,9 C 92 % 1011,3 hPa 0,0 l/m 0 min 0 min 0,0 UV-I 165 W/m 2,6 km/h (1 Bft)
28.05.2014 12:24 14,3 C 13,9 C 92 % 1011,2 hPa 0,0 l/m 0 min 0 min 0,0 UV-I 167 W/m 7,7 km/h (2 Bft)
28.05.2014 12:26 14,3 C 13,9 C 92 % 1011,2 hPa 0,0 l/m 0 min 0 min 0,0 UV-I 165 W/m 2,6 km/h (1 Bft)
28.05.2014 12:28 14,4 C 13,9 C 92 % 1011,3 hPa 0,0 l/m 0 min 0 min 0,0 UV-I 162 W/m 5,1 km/h (1 Bft)
28.05.2014 12:30 14,4 C 13,9 C 92 % 1011,3 hPa 0,0 l/m 0 min 0 min 0,0 UV-I 162 W/m 2,6 km/h (1 Bft)
28.05.2014 12:32 14,5 C 13,9 C 92 % 1011,3 hPa 0,0 l/m 0 min 0 min 0,0 UV-I 163 W/m 2,6 km/h (1 Bft)
28.05.2014 12:34 14,5 C 13,9 C 92 % 1011,3 hPa 0,0 l/m 0 min 0 min 0,0 UV-I 169 W/m 2,6 km/h (1 Bft)
28.05.2014 12:36 14,5 C 13,9 C 91 % 1011,3 hPa 0,0 l/m 0 min 0 min 0,0 UV-I 172 W/m 5,1 km/h (1 Bft)
28.05.2014 12:38 14,6 C 13,9 C 91 % 1011,3 hPa 0,0 l/m 0 min 0 min 0,0 UV-I 178 W/m 0,0 km/h (0 Bft)
28.05.2014 12:40 14,6 C 13,9 C 91 % 1011,3 hPa 0,0 l/m 0 min 0 min 0,5 UV-I 190 W/m 0,0 km/h (0 Bft)
28.05.2014 12:42 14,7 C 14,4 C 91 % 1011,3 hPa 0,0 l/m 0 min 0 min 0,6 UV-I 197 W/m 0,0 km/h (0 Bft)
28.05.2014 12:44 14,8 C 14,4 C 91 % 1011,3 hPa 0,0 l/m 0 min 0 min 0,6 UV-I 206 W/m 0,0 km/h (0 Bft)
28.05.2014 12:46 14,8 C 14,4 C 92 % 1011,4 hPa 0,0 l/m 0 min 0 min 0,7 UV-I 216 W/m 7,7 km/h (2 Bft)
28.05.2014 12:48 14,7 C 14,4 C 91 % 1011,3 hPa 0,0 l/m 0 min 0 min 0,8 UV-I 220 W/m 7,7 km/h (2 Bft)
28.05.2014 12:50 14,8 C 14,4 C 90 % 1011,4 hPa 0,0 l/m 0 min 0 min 0,8 UV-I 223 W/m 2,6 km/h (1 Bft)
28.05.2014 12:52 14,8 C 15,0 C 91 % 1011,3 hPa 0,0 l/m 0 min 0 min 0,8 UV-I 227 W/m 2,6 km/h (1 Bft)
28.05.2014 12:54 14,8 C 15,0 C 90 % 1011,3 hPa 0,0 l/m 0 min 0 min 0,8 UV-I 230 W/m 7,7 km/h (2 Bft)
28.05.2014 12:56 14,9 C 15,0 C 90 % 1011,3 hPa 0,0 l/m 0 min 0 min 0,9 UV-I 237 W/m 10,3 km/h (2 Bft)
28.05.2014 12:58 15,0 C 15,0 C 90 % 1011,3 hPa 0,0 l/m 0 min 0 min 1,0 UV-I 258 W/m 0,0 km/h (0 Bft)
28.05.2014 13:00 15,1 C 15,0 C 90 % 1011,4 hPa 0,0 l/m 0 min 0 min 1,1 UV-I 265 W/m 2,6 km/h (1 Bft)
28.05.2014 13:02 15,2 C 15,0 C 90 % 1011,4 hPa 0,0 l/m 0 min 0 min 1,1 UV-I 274 W/m 0,0 km/h (0 Bft)
28.05.2014 13:06 15,2 C 15,0 C 89 % 1011,4 hPa 0,0 l/m 0 min 0 min 1,1 UV-I 272 W/m 12,9 km/h (3 Bft)
28.05.2014 13:08 15,2 C 15,0 C 88 % 1011,4 hPa 0,0 l/m 0 min 0 min 1,1 UV-I 262 W/m 7,7 km/h (2 Bft)
28.05.2014 13:10 15,2 C 15,0 C 88 % 1011,4 hPa 0,0 l/m 0 min 0 min 0,9 UV-I 246 W/m 2,6 km/h (1 Bft)
28.05.2014 13:12 15,3 C 15,0 C 88 % 1011,4 hPa 0,0 l/m 0 min 0 min 0,9 UV-I 236 W/m 0,0 km/h (0 Bft)
28.05.2014 13:14 15,3 C 15,0 C 88 % 1011,4 hPa 0,0 l/m 0 min 0 min 0,9 UV-I 234 W/m 2,6 km/h (1 Bft)
28.05.2014 13:16 15,3 C 15,0 C 88 % 1011,4 hPa 0,0 l/m 0 min 0 min 0,9 UV-I 237 W/m 2,6 km/h (1 Bft)
28.05.2014 13:18 15,4 C 15,6 C 88 % 1011,5 hPa 0,0 l/m 0 min 0 min 1,0 UV-I 244 W/m 2,6 km/h (1 Bft)
28.05.2014 13:20 15,4 C 15,6 C 88 % 1011,4 hPa 0,0 l/m 0 min 0 min 1,1 UV-I 269 W/m 12,9 km/h (3 Bft)
28.05.2014 13:22 15,4 C 15,6 C 88 % 1011,5 hPa 0,0 l/m 0 min 0 min 1,2 UV-I 287 W/m 15,4 km/h (3 Bft)
28.05.2014 13:24 15,4 C 15,6 C 87 % 1011,5 hPa 0,0 l/m 0 min 0 min 1,3 UV-I 301 W/m 7,7 km/h (2 Bft)
28.05.2014 13:26 15,4 C 15,6 C 87 % 1011,5 hPa 0,0 l/m 0 min 0 min 1,4 UV-I 311 W/m 5,1 km/h (1 Bft)
28.05.2014 13:28 15,5 C 15,6 C 87 % 1011,5 hPa 0,0 l/m 0 min 0 min 1,4 UV-I 309 W/m 2,6 km/h (1 Bft)
28.05.2014 13:30 15,5 C 15,6 C 87 % 1011,5 hPa 0,0 l/m 0 min 0 min 1,4 UV-I 311 W/m 12,9 km/h (3 Bft)
28.05.2014 13:32 15,6 C 16,1 C 87 % 1011,4 hPa 0,0 l/m 0 min 0 min 1,4 UV-I 308 W/m 2,6 km/h (1 Bft)
28.05.2014 13:34 15,7 C 16,1 C 87 % 1011,5 hPa 0,0 l/m 0 min 0 min 1,3 UV-I 301 W/m 0,0 km/h (0 Bft)
28.05.2014 13:36 15,8 C 16,1 C 87 % 1011,5 hPa 0,0 l/m 0 min 0 min 1,3 UV-I 288 W/m 5,1 km/h (1 Bft)
28.05.2014 13:38 15,8 C 16,1 C 87 % 1011,5 hPa 0,0 l/m 0 min 0 min 1,1 UV-I 264 W/m 0,0 km/h (0 Bft)
28.05.2014 13:40 15,9 C 16,1 C 88 % 1011,5 hPa 0,0 l/m 0 min 0 min 1,0 UV-I 250 W/m 12,9 km/h (3 Bft)
28.05.2014 13:42 15,9 C 16,1 C 87 % 1011,5 hPa 0,0 l/m 0 min 0 min 1,0 UV-I 251 W/m 5,1 km/h (1 Bft)
28.05.2014 13:44 16,0 C 16,1 C 87 % 1011,5 hPa 0,0 l/m 0 min 0 min 1,0 UV-I 244 W/m 0,0 km/h (0 Bft)
28.05.2014 13:46 15,9 C 16,1 C 87 % 1011,5 hPa 0,0 l/m 0 min 0 min 0,9 UV-I 236 W/m 10,3 km/h (2 Bft)
28.05.2014 13:48 15,9 C 16,1 C 86 % 1011,5 hPa 0,0 l/m 0 min 0 min 0,9 UV-I 237 W/m 5,1 km/h (1 Bft)
28.05.2014 13:50 15,9 C 16,1 C 86 % 1011,5 hPa 0,0 l/m 0 min 0 min 0,9 UV-I 239 W/m 2,6 km/h (1 Bft)
28.05.2014 13:52 15,8 C 15,6 C 85 % 1011,4 hPa 0,0 l/m 0 min 0 min 1,0 UV-I 246 W/m 7,7 km/h (2 Bft)
28.05.2014 13:54 15,8 C 15,6 C 86 % 1011,5 hPa 0,0 l/m 0 min 0 min 0,8 UV-I 221 W/m 7,7 km/h (2 Bft)
28.05.2014 13:56 15,8 C 15,6 C 86 % 1011,5 hPa 0,0 l/m 0 min 0 min 0,5 UV-I 162 W/m 2,6 km/h (1 Bft)
28.05.2014 13:58 15,8 C 15,6 C 86 % 1011,5 hPa 0,0 l/m 0 min 0 min 0,0 UV-I 141 W/m 0,0 km/h (0 Bft)
28.05.2014 14:00 15,8 C 15,0 C 85 % 1011,5 hPa 0,0 l/m 0 min 0 min 0,0 UV-I 149 W/m 7,7 km/h (2 Bft)
28.05.2014 14:02 15,7 C 15,0 C 85 % 1011,5 hPa 0,0 l/m 0 min 0 min 0,6 UV-I 216 W/m 7,7 km/h (2 Bft)
28.05.2014 14:06 15,6 C 15,6 C 86 % 1011,5 hPa 0,0 l/m 0 min 0 min 1,2 UV-I 287 W/m 7,7 km/h (2 Bft)
28.05.2014 14:08 15,8 C 15,6 C 88 % 1011,5 hPa 0,0 l/m 0 min 0 min 1,2 UV-I 274 W/m 2,6 km/h (1 Bft)
28.05.2014 14:10 15,8 C 16,1 C 87 % 1011,5 hPa 0,0 l/m 0 min 0 min 1,5 UV-I 325 W/m 12,9 km/h (3 Bft)
28.05.2014 14:12 15,8 C 16,1 C 87 % 1011,5 hPa 0,0 l/m 0 min 0 min 1,8 UV-I 385 W/m 5,1 km/h (1 Bft)
28.05.2014 14:14 16,0 C 16,7 C 88 % 1011,5 hPa 0,0 l/m 0 min 0 min 1,7 UV-I 355 W/m 0,0 km/h (0 Bft)
28.05.2014 14:16 16,1 C 16,7 C 87 % 1011,5 hPa 0,0 l/m 0 min 0 min 1,5 UV-I 332 W/m 7,7 km/h (2 Bft)
28.05.2014 14:18 16,2 C 16,7 C 88 % 1011,5 hPa 0,0 l/m 0 min 0 min 1,4 UV-I 320 W/m 7,7 km/h (2 Bft)
28.05.2014 14:20 16,3 C 16,7 C 87 % 1011,4 hPa 0,0 l/m 0 min 0 min 1,4 UV-I 302 W/m 0,0 km/h (0 Bft)
28.05.2014 14:22 16,4 C 16,7 C 86 % 1011,5 hPa 0,0 l/m 0 min 0 min 1,3 UV-I 295 W/m 10,3 km/h (2 Bft)
28.05.2014 14:24 16,4 C 16,7 C 86 % 1011,4 hPa 0,0 l/m 0 min 0 min 1,3 UV-I 288 W/m 5,1 km/h (1 Bft)
28.05.2014 14:26 16,4 C 16,7 C 86 % 1011,5 hPa 0,0 l/m 0 min 0 min 1,2 UV-I 281 W/m 15,4 km/h (3 Bft)
28.05.2014 14:28 16,3 C 16,7 C 85 % 1011,4 hPa 0,0 l/m 0 min 0 min 1,1 UV-I 260 W/m 15,4 km/h (3 Bft)
28.05.2014 14:30 16,2 C 16,7 C 85 % 1011,4 hPa 0,0 l/m 0 min 0 min 1,0 UV-I 241 W/m 12,9 km/h (3 Bft)
28.05.2014 14:32 16,2 C 16,1 C 85 % 1011,5 hPa 0,0 l/m 0 min 0 min 0,8 UV-I 220 W/m 7,7 km/h (2 Bft)
28.05.2014 14:34 16,2 C 16,1 C 85 % 1011,5 hPa 0,0 l/m 0 min 0 min 0,6 UV-I 200 W/m 5,1 km/h (1 Bft)
28.05.2014 14:36 16,1 C 16,1 C 85 % 1011,5 hPa 0,0 l/m 0 min 0 min 0,5 UV-I 165 W/m 10,3 km/h (2 Bft)
28.05.2014 14:38 16,1 C 15,6 C 85 % 1011,5 hPa 0,0 l/m 0 min 0 min 0,0 UV-I 151 W/m 10,3 km/h (2 Bft)
28.05.2014 14:40 16,0 C 15,6 C 85 % 1011,5 hPa 0,0 l/m 0 min 0 min 0,0 UV-I 148 W/m 12,9 km/h (3 Bft)
28.05.2014 14:42 15,9 C 15,6 C 85 % 1011,4 hPa 0,0 l/m 0 min 0 min 0,0 UV-I 141 W/m 0,0 km/h (0 Bft)
28.05.2014 14:44 15,9 C 15,6 C 86 % 1011,5 hPa 0,0 l/m 0 min 0 min 0,0 UV-I 134 W/m 0,0 km/h (0 Bft)
28.05.2014 14:46 15,8 C 15,0 C 85 % 1011,5 hPa 0,0 l/m 0 min 0 min 0,0 UV-I 127 W/m 10,3 km/h (2 Bft)
28.05.2014 14:48 15,8 C 15,0 C 86 % 1011,5 hPa 0,0 l/m 0 min 0 min 0,0 UV-I 114 W/m 5,1 km/h (1 Bft)
28.05.2014 14:50 15,7 C 15,0 C 86 % 1011,5 hPa 0,0 l/m 0 min 0 min 0,0 UV-I 111 W/m 2,6 km/h (1 Bft)
28.05.2014 14:52 15,7 C 15,0 C 86 % 1011,5 hPa 0,0 l/m 0 min 0 min 0,0 UV-I 113 W/m 2,6 km/h (1 Bft)
28.05.2014 14:54 15,7 C 15,0 C 86 % 1011,5 hPa 0,0 l/m 0 min 0 min 0,0 UV-I 100 W/m 5,1 km/h (1 Bft)
28.05.2014 14:56 15,7 C 15,0 C 86 % 1011,5 hPa 0,0 l/m 0 min 0 min 0,0 UV-I 81 W/m 5,1 km/h (1 Bft)
28.05.2014 14:58 15,6 C 15,0 C 86 % 1011,5 hPa 0,0 l/m 0 min 0 min 0,0 UV-I 67 W/m 5,1 km/h (1 Bft)
28.05.2014 15:00 15,6 C 15,0 C 86 % 1011,5 hPa 0,0 l/m 0 min 0 min 0,0 UV-I 60 W/m 0,0 km/h (0 Bft)
28.05.2014 15:02 15,5 C 14,4 C 87 % 1011,6 hPa 0,0 l/m 0 min 0 min 0,0 UV-I 54 W/m 0,0 km/h (0 Bft)
28.05.2014 15:06 15,3 C 14,4 C 87 % 1011,6 hPa 0,0 l/m 0 min 0 min 0,0 UV-I 46 W/m 2,6 km/h (1 Bft)
28.05.2014 15:08 15,3 C 14,4 C 88 % 1011,6 hPa 0,0 l/m 0 min 0 min 0,0 UV-I 44 W/m 0,0 km/h (0 Bft)
28.05.2014 15:10 15,2 C 13,9 C 89 % 1011,6 hPa 0,0 l/m 0 min 0 min 0,0 UV-I 49 W/m 0,0 km/h (0 Bft)
28.05.2014 15:12 15,1 C 13,9 C 90 % 1011,6 hPa 0,0 l/m 0 min 0 min 0,0 UV-I 47 W/m 0,0 km/h (0 Bft)
28.05.2014 15:14 15,1 C 13,9 C 90 % 1011,6 hPa 0,0 l/m 0 min 0 min 0,0 UV-I 44 W/m 7,7 km/h (2 Bft)
28.05.2014 15:16 14,9 C 13,9 C 90 % 1011,6 hPa 0,0 l/m 0 min 0 min 0,0 UV-I 47 W/m 7,7 km/h (2 Bft)
28.05.2014 15:18 14,8 C 13,3 C 91 % 1011,6 hPa 0,0 l/m 0 min 0 min 0,0 UV-I 60 W/m 12,9 km/h (3 Bft)
28.05.2014 15:20 14,8 C 13,3 C 91 % 1011,6 hPa 0,0 l/m 0 min 0 min 0,0 UV-I 62 W/m 12,9 km/h (3 Bft)
28.05.2014 15:22 14,7 C 13,3 C 91 % 1011,6 hPa 0,0 l/m 0 min 0 min 0,0 UV-I 60 W/m 0,0 km/h (0 Bft)
28.05.2014 15:24 14,7 C 13,3 C 91 % 1011,6 hPa 0,0 l/m 0 min 0 min 0,0 UV-I 58 W/m 0,0 km/h (0 Bft)
28.05.2014 15:26 14,7 C 13,3 C 91 % 1011,6 hPa 0,0 l/m 0 min 0 min 0,0 UV-I 58 W/m 0,0 km/h (0 Bft)
28.05.2014 15:28 14,6 C 13,3 C 92 % 1011,6 hPa 0,0 l/m 0 min 0 min 0,0 UV-I 60 W/m 7,7 km/h (2 Bft)
28.05.2014 15:30 14,6 C 13,3 C 92 % 1011,6 hPa 0,0 l/m 0 min 0 min 0,0 UV-I 63 W/m 2,6 km/h (1 Bft)
28.05.2014 15:32 14,5 C 13,3 C 92 % 1011,6 hPa 0,0 l/m 0 min 0 min 0,0 UV-I 65 W/m 0,0 km/h (0 Bft)
28.05.2014 15:34 14,6 C 13,3 C 92 % 1011,6 hPa 0,0 l/m 0 min 0 min 0,0 UV-I 65 W/m 0,0 km/h (0 Bft)
28.05.2014 15:36 14,6 C 13,3 C 93 % 1011,6 hPa 0,0 l/m 0 min 0 min 0,0 UV-I 65 W/m 0,0 km/h (0 Bft)
28.05.2014 15:38 14,6 C 13,3 C 93 % 1011,6 hPa 0,0 l/m 0 min 0 min 0,0 UV-I 67 W/m 0,0 km/h (0 Bft)
28.05.2014 15:40 14,6 C 13,3 C 93 % 1011,6 hPa 0,0 l/m 0 min 0 min 0,0 UV-I 69 W/m 0,0 km/h (0 Bft)
28.05.2014 15:42 14,6 C 13,3 C 93 % 1011,6 hPa 0,0 l/m 0 min 0 min 0,0 UV-I 74 W/m 0,0 km/h (0 Bft)
28.05.2014 15:44 14,6 C 13,3 C 93 % 1011,6 hPa 0,0 l/m 0 min 0 min 0,0 UV-I 76 W/m 0,0 km/h (0 Bft)
28.05.2014 15:46 14,6 C 13,3 C 93 % 1011,6 hPa 0,0 l/m 0 min 0 min 0,0 UV-I 76 W/m 0,0 km/h (0 Bft)
28.05.2014 15:48 14,6 C 13,9 C 93 % 1011,6 hPa 0,0 l/m 0 min 0 min 0,0 UV-I 83 W/m 0,0 km/h (0 Bft)
28.05.2014 15:50 14,6 C 13,9 C 94 % 1011,7 hPa 0,0 l/m 0 min 0 min 0,0 UV-I 88 W/m 0,0 km/h (0 Bft)
28.05.2014 15:52 14,6 C 13,9 C 93 % 1011,6 hPa 0,0 l/m 0 min 0 min 0,0 UV-I 93 W/m 0,0 km/h (0 Bft)
28.05.2014 15:54 14,7 C 13,9 C 93 % 1011,6 hPa 0,0 l/m 0 min 0 min 0,0 UV-I 95 W/m 0,0 km/h (0 Bft)
28.05.2014 15:56 14,7 C 13,9 C 93 % 1011,6 hPa 0,0 l/m 0 min 0 min 0,0 UV-I 97 W/m 0,0 km/h (0 Bft)
28.05.2014 15:58 14,7 C 13,9 C 93 % 1011,6 hPa 0,0 l/m 0 min 0 min 0,0 UV-I 98 W/m 12,9 km/h (3 Bft)
28.05.2014 16:00 14,7 C 13,9 C 92 % 1011,7 hPa 0,0 l/m 0 min 0 min 0,0 UV-I 100 W/m 5,1 km/h (1 Bft)
28.05.2014 16:02 14,8 C 13,9 C 92 % 1011,6 hPa 0,0 l/m 0 min 0 min 0,0 UV-I 102 W/m 0,0 km/h (0 Bft)
28.05.2014 16:06 14,8 C 14,4 C 92 % 1011,7 hPa 0,0 l/m 0 min 0 min 0,0 UV-I 104 W/m 0,0 km/h (0 Bft)
28.05.2014 16:08 14,9 C 14,4 C 92 % 1011,6 hPa 0,0 l/m 0 min 0 min 0,0 UV-I 105 W/m 0,0 km/h (0 Bft)
28.05.2014 16:10 14,9 C 14,4 C 91 % 1011,6 hPa 0,0 l/m 0 min 0 min 0,0 UV-I 109 W/m 5,1 km/h (1 Bft)
28.05.2014 16:12 14,9 C 14,4 C 91 % 1011,6 hPa 0,0 l/m 0 min 0 min 0,0 UV-I 107 W/m 2,6 km/h (1 Bft)
28.05.2014 16:14 14,9 C 14,4 C 90 % 1011,6 hPa 0,0 l/m 0 min 0 min 0,0 UV-I 107 W/m 0,0 km/h (0 Bft)
28.05.2014 16:16 14,9 C 14,4 C 90 % 1011,6 hPa 0,0 l/m 0 min 0 min 0,0 UV-I 102 W/m 0,0 km/h (0 Bft)
28.05.2014 16:18 15,0 C 14,4 C 90 % 1011,6 hPa 0,0 l/m 0 min 0 min 0,0 UV-I 104 W/m 2,6 km/h (1 Bft)
28.05.2014 16:20 15,0 C 14,4 C 90 % 1011,7 hPa 0,0 l/m 0 min 0 min 0,0 UV-I 105 W/m 0,0 km/h (0 Bft)
28.05.2014 16:22 15,1 C 14,4 C 90 % 1011,7 hPa 0,0 l/m 0 min 0 min 0,0 UV-I 109 W/m 0,0 km/h (0 Bft)
28.05.2014 16:24 15,1 C 14,4 C 90 % 1011,7 hPa 0,0 l/m 0 min 0 min 0,0 UV-I 109 W/m 0,0 km/h (0 Bft)
28.05.2014 16:26 15,1 C 14,4 C 90 % 1011,6 hPa 0,0 l/m 0 min 0 min 0,0 UV-I 111 W/m 0,0 km/h (0 Bft)
28.05.2014 16:28 15,2 C 14,4 C 90 % 1011,6 hPa 0,0 l/m 0 min 0 min 0,0 UV-I 109 W/m 0,0 km/h (0 Bft)
28.05.2014 16:30 15,2 C 14,4 C 90 % 1011,6 hPa 0,0 l/m 0 min 0 min 0,0 UV-I 107 W/m 2,6 km/h (1 Bft)
28.05.2014 16:32 15,2 C 14,4 C 90 % 1011,6 hPa 0,0 l/m 0 min 0 min 0,0 UV-I 105 W/m 0,0 km/h (0 Bft)
28.05.2014 16:34 15,1 C 14,4 C 89 % 1011,6 hPa 0,0 l/m 0 min 0 min 0,0 UV-I 104 W/m 7,7 km/h (2 Bft)
28.05.2014 16:36 15,1 C 14,4 C 89 % 1011,6 hPa 0,0 l/m 0 min 0 min 0,0 UV-I 105 W/m 0,0 km/h (0 Bft)
28.05.2014 16:38 15,1 C 14,4 C 90 % 1011,6 hPa 0,0 l/m 0 min 0 min 0,0 UV-I 104 W/m 0,0 km/h (0 Bft)
28.05.2014 16:40 15,1 C 14,4 C 90 % 1011,6 hPa 0,0 l/m 0 min 0 min 0,0 UV-I 100 W/m 7,7 km/h (2 Bft)
28.05.2014 16:42 15,1 C 14,4 C 90 % 1011,6 hPa 0,0 l/m 0 min 0 min 0,0 UV-I 95 W/m 7,7 km/h (2 Bft)
28.05.2014 16:44 15,0 C 14,4 C 90 % 1011,7 hPa 0,0 l/m 0 min 0 min 0,0 UV-I 93 W/m 5,1 km/h (1 Bft)
28.05.2014 16:46 15,0 C 14,4 C 90 % 1011,7 hPa 0,0 l/m 0 min 0 min 0,0 UV-I 93 W/m 7,7 km/h (2 Bft)
28.05.2014 16:48 14,9 C 14,4 C 90 % 1011,7 hPa 0,0 l/m 0 min 0 min 0,0 UV-I 93 W/m 7,7 km/h (2 Bft)
28.05.2014 16:50 14,9 C 14,4 C 90 % 1011,8 hPa 0,0 l/m 0 min 0 min 0,0 UV-I 95 W/m 0,0 km/h (0 Bft)
28.05.2014 16:52 14,9 C 14,4 C 90 % 1011,7 hPa 0,0 l/m 0 min 0 min 0,0 UV-I 97 W/m 0,0 km/h (0 Bft)
28.05.2014 16:54 15,0 C 14,4 C 90 % 1011,7 hPa 0,0 l/m 0 min 0 min 0,0 UV-I 98 W/m 0,0 km/h (0 Bft)
28.05.2014 16:56 15,1 C 14,4 C 91 % 1011,7 hPa 0,0 l/m 0 min 0 min 0,0 UV-I 97 W/m 2,6 km/h (1 Bft)
28.05.2014 16:58 15,1 C 14,4 C 91 % 1011,8 hPa 0,0 l/m 0 min 0 min 0,0 UV-I 90 W/m 2,6 km/h (1 Bft)
28.05.2014 17:00 15,1 C 14,4 C 91 % 1011,7 hPa 0,0 l/m 0 min 0 min 0,0 UV-I 81 W/m 0,0 km/h (0 Bft)
28.05.2014 17:02 15,0 C 14,4 C 91 % 1011,7 hPa 0,0 l/m 0 min 0 min 0,0 UV-I 67 W/m 5,1 km/h (1 Bft)
28.05.2014 17:06 14,9 C 13,9 C 92 % 1011,8 hPa 0,0 l/m 0 min 0 min 0,0 UV-I 44 W/m 0,0 km/h (0 Bft)
28.05.2014 17:08 14,8 C 13,9 C 92 % 1011,8 hPa 0,0 l/m 0 min 0 min 0,0 UV-I 39 W/m 2,6 km/h (1 Bft)
28.05.2014 17:10 14,8 C 13,9 C 92 % 1011,8 hPa 0,0 l/m 0 min 0 min 0,0 UV-I 35 W/m 0,0 km/h (0 Bft)
28.05.2014 17:12 14,7 C 13,9 C 92 % 1011,8 hPa 0,0 l/m 0 min 0 min 0,0 UV-I 32 W/m 2,6 km/h (1 Bft)
28.05.2014 17:14 14,6 C 13,3 C 91 % 1011,8 hPa 0,0 l/m 0 min 2 min 0,0 UV-I 32 W/m 0,0 km/h (0 Bft)
28.05.2014 17:16 14,6 C 13,3 C 91 % 1011,8 hPa 0,0 l/m 0 min 2 min 0,0 UV-I 32 W/m 0,0 km/h (0 Bft)
28.05.2014 17:18 14,6 C 12,8 C 92 % 1011,9 hPa 0,0 l/m 0 min 2 min 0,0 UV-I 33 W/m 0,0 km/h (0 Bft)
28.05.2014 17:20 14,5 C 12,8 C 92 % 1011,8 hPa 0,0 l/m 0 min 2 min 0,0 UV-I 39 W/m 0,0 km/h (0 Bft)
28.05.2014 17:22 14,4 C 12,8 C 92 % 1011,9 hPa 0,0 l/m 0 min 2 min 0,0 UV-I 40 W/m 0,0 km/h (0 Bft)
28.05.2014 17:24 14,4 C 12,8 C 92 % 1011,8 hPa 0,0 l/m 0 min 2 min 0,0 UV-I 40 W/m 0,0 km/h (0 Bft)
28.05.2014 17:26 14,4 C 12,8 C 92 % 1011,8 hPa 0,0 l/m 0 min 2 min 0,0 UV-I 44 W/m 0,0 km/h (0 Bft)
28.05.2014 17:28 14,4 C 12,8 C 92 % 1011,8 hPa 0,0 l/m 0 min 2 min 0,0 UV-I 47 W/m 0,0 km/h (0 Bft)
28.05.2014 17:30 14,3 C 12,8 C 93 % 1011,8 hPa 0,2 l/m 0 min 2 min 0,0 UV-I 51 W/m 0,0 km/h (0 Bft)
28.05.2014 17:32 14,3 C 12,8 C 93 % 1011,8 hPa 0,0 l/m 0 min 2 min 0,0 UV-I 56 W/m 0,0 km/h (0 Bft)
28.05.2014 17:34 14,2 C 12,8 C 93 % 1011,9 hPa 0,0 l/m 0 min 2 min 0,0 UV-I 58 W/m 0,0 km/h (0 Bft)
28.05.2014 17:36 14,2 C 12,8 C 93 % 1011,8 hPa 0,0 l/m 0 min 2 min 0,0 UV-I 62 W/m 0,0 km/h (0 Bft)
28.05.2014 17:38 14,3 C 12,8 C 94 % 1011,8 hPa 0,0 l/m 0 min 0 min 0,0 UV-I 69 W/m 0,0 km/h (0 Bft)
28.05.2014 17:40 14,4 C 12,8 C 94 % 1011,7 hPa 0,0 l/m 0 min 0 min 0,0 UV-I 72 W/m 0,0 km/h (0 Bft)
28.05.2014 17:42 14,3 C 12,8 C 94 % 1011,7 hPa 0,0 l/m 0 min 0 min 0,0 UV-I 74 W/m 0,0 km/h (0 Bft)
28.05.2014 17:44 14,3 C 12,8 C 94 % 1011,7 hPa 0,0 l/m 0 min 0 min 0,0 UV-I 76 W/m 0,0 km/h (0 Bft)
28.05.2014 17:46 14,4 C 12,8 C 94 % 1011,8 hPa 0,0 l/m 0 min 0 min 0,0 UV-I 76 W/m 0,0 km/h (0 Bft)
28.05.2014 17:48 14,4 C 13,3 C 95 % 1011,7 hPa 0,0 l/m 0 min 0 min 0,0 UV-I 76 W/m 0,0 km/h (0 Bft)
28.05.2014 17:50 14,5 C 13,3 C 95 % 1011,7 hPa 0,0 l/m 0 min 0 min 0,0 UV-I 77 W/m 0,0 km/h (0 Bft)
28.05.2014 17:52 14,4 C 12,8 C 95 % 1011,8 hPa 0,0 l/m 0 min 0 min 0,0 UV-I 79 W/m 0,0 km/h (0 Bft)
28.05.2014 17:54 14,3 C 12,8 C 95 % 1011,7 hPa 0,0 l/m 0 min 0 min 0,0 UV-I 83 W/m 0,0 km/h (0 Bft)
28.05.2014 17:56 14,3 C 12,8 C 95 % 1011,7 hPa 0,0 l/m 0 min 0 min 0,0 UV-I 84 W/m 0,0 km/h (0 Bft)
28.05.2014 17:58 14,3 C 12,8 C 95 % 1011,7 hPa 0,0 l/m 0 min 0 min 0,0 UV-I 86 W/m 0,0 km/h (0 Bft)
28.05.2014 18:00 14,4 C 13,3 C 95 % 1011,8 hPa 0,0 l/m 0 min 0 min 0,0 UV-I 86 W/m 0,0 km/h (0 Bft)
28.05.2014 18:02 14,4 C 12,8 C 95 % 1011,8 hPa 0,0 l/m 0 min 0 min 0,0 UV-I 86 W/m 7,7 km/h (2 Bft)
28.05.2014 18:06 14,3 C 12,8 C 95 % 1011,8 hPa 0,0 l/m 0 min 0 min 0,0 UV-I 93 W/m 7,7 km/h (2 Bft)
28.05.2014 18:08 14,3 C 12,8 C 95 % 1011,8 hPa 0,0 l/m 0 min 0 min 0,0 UV-I 102 W/m 0,0 km/h (0 Bft)
28.05.2014 18:10 14,3 C 12,8 C 96 % 1011,8 hPa 0,0 l/m 0 min 0 min 0,0 UV-I 105 W/m 0,0 km/h (0 Bft)
28.05.2014 18:12 14,4 C 13,3 C 95 % 1011,8 hPa 0,0 l/m 0 min 0 min 0,0 UV-I 104 W/m 0,0 km/h (0 Bft)
28.05.2014 18:14 14,3 C 13,3 C 96 % 1011,8 hPa 0,0 l/m 0 min 0 min 0,0 UV-I 86 W/m 0,0 km/h (0 Bft)
28.05.2014 18:16 14,4 C 13,3 C 96 % 1011,8 hPa 0,0 l/m 0 min 0 min 0,0 UV-I 79 W/m 0,0 km/h (0 Bft)
28.05.2014 18:18 14,4 C 13,3 C 96 % 1011,8 hPa 0,0 l/m 0 min 0 min 0,0 UV-I 67 W/m 0,0 km/h (0 Bft)
28.05.2014 18:20 14,4 C 12,8 C 96 % 1011,9 hPa 0,0 l/m 0 min 0 min 0,0 UV-I 62 W/m 7,7 km/h (2 Bft)
28.05.2014 18:22 14,3 C 12,8 C 95 % 1011,8 hPa 0,0 l/m 0 min 0 min 0,0 UV-I 56 W/m 5,1 km/h (1 Bft)
28.05.2014 18:24 14,3 C 12,8 C 95 % 1011,8 hPa 0,0 l/m 0 min 0 min 0,0 UV-I 54 W/m 0,0 km/h (0 Bft)
28.05.2014 18:26 14,3 C 12,8 C 95 % 1011,9 hPa 0,0 l/m 0 min 0 min 0,0 UV-I 54 W/m 0,0 km/h (0 Bft)
28.05.2014 18:28 14,3 C 12,8 C 95 % 1011,9 hPa 0,0 l/m 0 min 0 min 0,0 UV-I 51 W/m 0,0 km/h (0 Bft)
28.05.2014 18:30 14,3 C 12,8 C 95 % 1011,9 hPa 0,0 l/m 0 min 0 min 0,0 UV-I 47 W/m 0,0 km/h (0 Bft)
28.05.2014 18:32 14,4 C 12,8 C 95 % 1011,9 hPa 0,0 l/m 0 min 0 min 0,0 UV-I 46 W/m 0,0 km/h (0 Bft)
28.05.2014 18:34 14,5 C 13,3 C 96 % 1011,8 hPa 0,0 l/m 0 min 0 min 0,0 UV-I 46 W/m 0,0 km/h (0 Bft)
28.05.2014 18:36 14,5 C 12,8 C 96 % 1011,9 hPa 0,0 l/m 0 min 0 min 0,0 UV-I 47 W/m 0,0 km/h (0 Bft)
28.05.2014 18:38 14,4 C 12,8 C 96 % 1011,9 hPa 0,0 l/m 0 min 0 min 0,0 UV-I 54 W/m 0,0 km/h (0 Bft)
28.05.2014 18:40 14,3 C 12,8 C 96 % 1011,9 hPa 0,0 l/m 0 min 0 min 0,0 UV-I 58 W/m 0,0 km/h (0 Bft)
28.05.2014 18:42 14,3 C 12,8 C 96 % 1011,8 hPa 0,0 l/m 0 min 0 min 0,0 UV-I 56 W/m 0,0 km/h (0 Bft)
28.05.2014 18:44 14,3 C 12,8 C 95 % 1011,8 hPa 0,0 l/m 0 min 0 min 0,0 UV-I 56 W/m 2,6 km/h (1 Bft)
28.05.2014 18:46 14,3 C 12,8 C 96 % 1011,8 hPa 0,0 l/m 0 min 0 min 0,0 UV-I 54 W/m 0,0 km/h (0 Bft)
28.05.2014 18:48 14,3 C 12,8 C 95 % 1011,8 hPa 0,0 l/m 0 min 0 min 0,0 UV-I 53 W/m 0,0 km/h (0 Bft)
28.05.2014 18:50 14,3 C 12,8 C 95 % 1011,9 hPa 0,0 l/m 0 min 0 min 0,0 UV-I 51 W/m 0,0 km/h (0 Bft)
28.05.2014 18:52 14,3 C 12,8 C 95 % 1011,9 hPa 0,0 l/m 0 min 0 min 0,0 UV-I 49 W/m 0,0 km/h (0 Bft)
28.05.2014 18:54 14,3 C 12,8 C 95 % 1011,9 hPa 0,0 l/m 0 min 0 min 0,0 UV-I 46 W/m 0,0 km/h (0 Bft)
28.05.2014 18:56 14,2 C 12,8 C 95 % 1011,8 hPa 0,0 l/m 0 min 0 min 0,0 UV-I 44 W/m 0,0 km/h (0 Bft)
28.05.2014 18:58 14,3 C 12,8 C 95 % 1011,8 hPa 0,0 l/m 0 min 0 min 0,0 UV-I 42 W/m 0,0 km/h (0 Bft)
28.05.2014 19:00 14,3 C 12,8 C 95 % 1011,9 hPa 0,0 l/m 0 min 0 min 0,0 UV-I 40 W/m 0,0 km/h (0 Bft)
28.05.2014 19:02 14,3 C 12,8 C 95 % 1011,9 hPa 0,0 l/m 0 min 0 min 0,0 UV-I 39 W/m 0,0 km/h (0 Bft)
28.05.2014 19:06 14,4 C 12,8 C 95 % 1011,9 hPa 0,0 l/m 0 min 0 min 0,0 UV-I 35 W/m 0,0 km/h (0 Bft)
28.05.2014 19:08 14,3 C 12,8 C 95 % 1011,9 hPa 0,0 l/m 0 min 0 min 0,0 UV-I 35 W/m 0,0 km/h (0 Bft)
28.05.2014 19:10 14,2 C 12,8 C 95 % 1011,9 hPa 0,0 l/m 0 min 0 min 0,0 UV-I 35 W/m 0,0 km/h (0 Bft)
28.05.2014 19:12 14,2 C 12,8 C 95 % 1012,0 hPa 0,0 l/m 0 min 0 min 0,0 UV-I 37 W/m 5,1 km/h (1 Bft)
28.05.2014 19:14 14,2 C 12,8 C 95 % 1012,0 hPa 0,0 l/m 0 min 0 min 0,0 UV-I 37 W/m 2,6 km/h (1 Bft)
28.05.2014 19:16 14,2 C 12,8 C 95 % 1012,0 hPa 0,0 l/m 0 min 0 min 0,0 UV-I 35 W/m 0,0 km/h (0 Bft)
28.05.2014 19:18 14,2 C 12,8 C 95 % 1012,0 hPa 0,0 l/m 0 min 0 min 0,0 UV-I 37 W/m 0,0 km/h (0 Bft)
28.05.2014 19:20 14,2 C 12,8 C 95 % 1012,0 hPa 0,0 l/m 0 min 0 min 0,0 UV-I 37 W/m 0,0 km/h (0 Bft)
28.05.2014 19:22 14,2 C 12,8 C 95 % 1012,0 hPa 0,0 l/m 0 min 0 min 0,0 UV-I 39 W/m 0,0 km/h (0 Bft)
28.05.2014 19:24 14,2 C 12,8 C 95 % 1012,0 hPa 0,0 l/m 0 min 0 min 0,0 UV-I 39 W/m 0,0 km/h (0 Bft)
28.05.2014 19:26 14,2 C 12,8 C 95 % 1012,1 hPa 0,0 l/m 0 min 0 min 0,0 UV-I 39 W/m 0,0 km/h (0 Bft)
28.05.2014 19:28 14,2 C 12,8 C 95 % 1012,0 hPa 0,0 l/m 0 min 0 min 0,0 UV-I 39 W/m 0,0 km/h (0 Bft)
28.05.2014 19:30 14,2 C 12,8 C 95 % 1012,0 hPa 0,0 l/m 0 min 0 min 0,0 UV-I 39 W/m 0,0 km/h (0 Bft)
28.05.2014 19:32 14,2 C 12,8 C 95 % 1012,0 hPa 0,0 l/m 0 min 0 min 0,0 UV-I 37 W/m 0,0 km/h (0 Bft)
28.05.2014 19:34 14,2 C 12,8 C 95 % 1012,1 hPa 0,0 l/m 0 min 0 min 0,0 UV-I 37 W/m 0,0 km/h (0 Bft)
28.05.2014 19:36 14,2 C 12,8 C 95 % 1012,1 hPa 0,0 l/m 0 min 0 min 0,0 UV-I 39 W/m 0,0 km/h (0 Bft)
28.05.2014 19:38 14,2 C 12,8 C 95 % 1012,0 hPa 0,0 l/m 0 min 0 min 0,0 UV-I 40 W/m 0,0 km/h (0 Bft)
28.05.2014 19:40 14,2 C 12,8 C 95 % 1012,0 hPa 0,0 l/m 0 min 0 min 0,0 UV-I 40 W/m 0,0 km/h (0 Bft)
28.05.2014 19:42 14,2 C 12,8 C 95 % 1012,0 hPa 0,0 l/m 0 min 0 min 0,0 UV-I 40 W/m 0,0 km/h (0 Bft)
28.05.2014 19:44 14,2 C 12,8 C 95 % 1012,1 hPa 0,0 l/m 0 min 0 min 0,0 UV-I 40 W/m 2,6 km/h (1 Bft)
28.05.2014 19:46 14,2 C 12,8 C 95 % 1012,0 hPa 0,0 l/m 0 min 0 min 0,0 UV-I 40 W/m 2,6 km/h (1 Bft)
28.05.2014 19:48 14,3 C 12,8 C 95 % 1012,0 hPa 0,0 l/m 0 min 0 min 0,0 UV-I 40 W/m 0,0 km/h (0 Bft)
28.05.2014 19:50 14,2 C 12,8 C 95 % 1012,0 hPa 0,0 l/m 0 min 0 min 0,0 UV-I 39 W/m 0,0 km/h (0 Bft)
28.05.2014 19:52 14,3 C 12,8 C 95 % 1012,0 hPa 0,0 l/m 0 min 0 min 0,0 UV-I 39 W/m 0,0 km/h (0 Bft)
28.05.2014 19:54 14,3 C 13,3 C 95 % 1012,0 hPa 0,0 l/m 0 min 0 min 0,0 UV-I 35 W/m 0,0 km/h (0 Bft)
28.05.2014 19:56 14,3 C 13,3 C 95 % 1012,0 hPa 0,0 l/m 0 min 0 min 0,0 UV-I 33 W/m 0,0 km/h (0 Bft)
28.05.2014 19:58 14,3 C 13,3 C 95 % 1012,0 hPa 0,0 l/m 0 min 0 min 0,0 UV-I 32 W/m 0,0 km/h (0 Bft)
28.05.2014 20:00 14,4 C 13,3 C 95 % 1012,1 hPa 0,0 l/m 0 min 0 min 0,0 UV-I 28 W/m 0,0 km/h (0 Bft)
28.05.2014 20:02 14,4 C 13,3 C 95 % 1012,1 hPa 0,0 l/m 0 min 0 min 0,0 UV-I 26 W/m 0,0 km/h (0 Bft)
28.05.2014 20:06 14,3 C 13,3 C 96 % 1012,2 hPa 0,0 l/m 0 min 0 min 0,0 UV-I 25 W/m 0,0 km/h (0 Bft)
28.05.2014 20:08 14,3 C 12,8 C 96 % 1012,2 hPa 0,0 l/m 0 min 0 min 0,0 UV-I 23 W/m 0,0 km/h (0 Bft)
28.05.2014 20:10 14,2 C 12,8 C 96 % 1012,2 hPa 0,0 l/m 0 min 0 min 0,0 UV-I 21 W/m 0,0 km/h (0 Bft)
28.05.2014 20:12 14,2 C 12,8 C 96 % 1012,2 hPa 0,0 l/m 0 min 0 min 0,0 UV-I 21 W/m 0,0 km/h (0 Bft)
28.05.2014 20:14 14,2 C 12,8 C 96 % 1012,3 hPa 0,0 l/m 0 min 0 min 0,0 UV-I 21 W/m 0,0 km/h (0 Bft)
28.05.2014 20:16 14,2 C 12,8 C 96 % 1012,3 hPa 0,0 l/m 0 min 0 min 0,0 UV-I 21 W/m 0,0 km/h (0 Bft)
28.05.2014 20:18 14,2 C 12,8 C 96 % 1012,3 hPa 0,0 l/m 0 min 0 min 0,0 UV-I 21 W/m 0,0 km/h (0 Bft)
28.05.2014 20:20 14,2 C 12,8 C 96 % 1012,3 hPa 0,0 l/m 0 min 0 min 0,0 UV-I 21 W/m 0,0 km/h (0 Bft)
28.05.2014 20:22 14,2 C 12,8 C 96 % 1012,3 hPa 0,0 l/m 0 min 0 min 0,0 UV-I 19 W/m 0,0 km/h (0 Bft)
28.05.2014 20:24 14,2 C 12,8 C 96 % 1012,3 hPa 0,0 l/m 0 min 0 min 0,0 UV-I 21 W/m 0,0 km/h (0 Bft)
28.05.2014 20:26 14,2 C 12,8 C 96 % 1012,3 hPa 0,0 l/m 0 min 0 min 0,0 UV-I 21 W/m 0,0 km/h (0 Bft)
28.05.2014 20:28 14,2 C 12,8 C 96 % 1012,3 hPa 0,0 l/m 0 min 0 min 0,0 UV-I 21 W/m 0,0 km/h (0 Bft)
28.05.2014 20:30 14,2 C 12,8 C 96 % 1012,3 hPa 0,0 l/m 0 min 0 min 0,0 UV-I 21 W/m 0,0 km/h (0 Bft)
28.05.2014 20:32 14,2 C 12,8 C 96 % 1012,3 hPa 0,0 l/m 0 min 0 min 0,0 UV-I 21 W/m 0,0 km/h (0 Bft)
28.05.2014 20:34 14,2 C 12,8 C 96 % 1012,2 hPa 0,0 l/m 0 min 0 min 0,0 UV-I 21 W/m 0,0 km/h (0 Bft)
28.05.2014 20:36 14,2 C 12,8 C 96 % 1012,3 hPa 0,0 l/m 0 min 0 min 0,0 UV-I 23 W/m 0,0 km/h (0 Bft)
28.05.2014 20:38 14,2 C 12,8 C 96 % 1012,3 hPa 0,0 l/m 0 min 0 min 0,0 UV-I 23 W/m 0,0 km/h (0 Bft)
28.05.2014 20:40 14,2 C 12,8 C 96 % 1012,3 hPa 0,0 l/m 0 min 0 min 0,0 UV-I 23 W/m 0,0 km/h (0 Bft)
28.05.2014 20:42 14,2 C 12,8 C 96 % 1012,3 hPa 0,0 l/m 0 min 0 min 0,0 UV-I 25 W/m 0,0 km/h (0 Bft)
28.05.2014 20:44 14,2 C 12,8 C 96 % 1012,3 hPa 0,0 l/m 0 min 0 min 0,0 UV-I 25 W/m 0,0 km/h (0 Bft)
28.05.2014 20:46 14,2 C 13,3 C 96 % 1012,3 hPa 0,0 l/m 0 min 0 min 0,0 UV-I 25 W/m 0,0 km/h (0 Bft)
28.05.2014 20:48 14,2 C 13,3 C 96 % 1012,3 hPa 0,0 l/m 0 min 0 min 0,0 UV-I 25 W/m 0,0 km/h (0 Bft)
28.05.2014 20:50 14,2 C 13,3 C 96 % 1012,3 hPa 0,0 l/m 0 min 0 min 0,0 UV-I 23 W/m 0,0 km/h (0 Bft)
28.05.2014 20:52 14,2 C 13,3 C 96 % 1012,3 hPa 0,0 l/m 0 min 0 min 0,0 UV-I 21 W/m 0,0 km/h (0 Bft)
28.05.2014 20:54 14,3 C 13,3 C 96 % 1012,3 hPa 0,0 l/m 0 min 0 min 0,0 UV-I 21 W/m 0,0 km/h (0 Bft)
28.05.2014 20:56 14,2 C 13,3 C 96 % 1012,3 hPa 0,0 l/m 0 min 0 min 0,0 UV-I 19 W/m 0,0 km/h (0 Bft)
28.05.2014 20:58 14,2 C 13,3 C 96 % 1012,3 hPa 0,0 l/m 0 min 0 min 0,0 UV-I 18 W/m 0,0 km/h (0 Bft)
28.05.2014 21:00 14,2 C 13,3 C 96 % 1012,3 hPa 0,0 l/m 0 min 0 min 0,0 UV-I 18 W/m 0,0 km/h (0 Bft)
28.05.2014 21:02 14,2 C 13,3 C 96 % 1012,3 hPa 0,0 l/m 0 min 0 min 0,0 UV-I 16 W/m 0,0 km/h (0 Bft)
28.05.2014 21:06 14,2 C 12,8 C 96 % 1012,3 hPa 0,0 l/m 0 min 0 min 0,0 UV-I 14 W/m 0,0 km/h (0 Bft)
28.05.2014 21:08 14,2 C 12,8 C 96 % 1012,4 hPa 0,0 l/m 0 min 0 min 0,0 UV-I 12 W/m 0,0 km/h (0 Bft)
28.05.2014 21:10 14,2 C 12,8 C 96 % 1012,4 hPa 0,0 l/m 0 min 0 min 0,0 UV-I 9 W/m 0,0 km/h (0 Bft)
28.05.2014 21:12 14,2 C 12,8 C 96 % 1012,4 hPa 0,0 l/m 0 min 0 min 0,0 UV-I 7 W/m 0,0 km/h (0 Bft)
28.05.2014 21:14 14,2 C 12,8 C 96 % 1012,5 hPa 0,0 l/m 0 min 0 min 0,0 UV-I 5 W/m 0,0 km/h (0 Bft)
28.05.2014 21:16 14,2 C 12,8 C 96 % 1012,5 hPa 0,0 l/m 0 min 0 min 0,0 UV-I 5 W/m 0,0 km/h (0 Bft)
28.05.2014 21:18 14,2 C 12,8 C 96 % 1012,5 hPa 0,0 l/m 0 min 0 min 0,0 UV-I 0 W/m 0,0 km/h (0 Bft)
28.05.2014 21:20 14,2 C 12,8 C 96 % 1012,6 hPa 0,0 l/m 0 min 0 min 0,0 UV-I 0 W/m 0,0 km/h (0 Bft)
28.05.2014 21:22 14,2 C 12,8 C 96 % 1012,6 hPa 0,0 l/m 0 min 0 min 0,0 UV-I 0 W/m 0,0 km/h (0 Bft)
28.05.2014 21:24 14,2 C 12,8 C 96 % 1012,7 hPa 0,0 l/m 0 min 0 min 0,0 UV-I 0 W/m 0,0 km/h (0 Bft)
28.05.2014 21:26 14,2 C 12,8 C 96 % 1012,7 hPa 0,0 l/m 0 min 0 min 0,0 UV-I 0 W/m 0,0 km/h (0 Bft)
28.05.2014 21:28 14,2 C 12,8 C 96 % 1012,7 hPa 0,0 l/m 0 min 0 min 0,0 UV-I 0 W/m 0,0 km/h (0 Bft)
28.05.2014 21:30 14,2 C 12,8 C 96 % 1012,8 hPa 0,0 l/m 0 min 0 min 0,0 UV-I 0 W/m 0,0 km/h (0 Bft)
28.05.2014 21:32 14,2 C 12,8 C 96 % 1012,7 hPa 0,0 l/m 0 min 0 min 0,0 UV-I 0 W/m 0,0 km/h (0 Bft)
28.05.2014 21:34 14,2 C 12,8 C 96 % 1012,8 hPa 0,0 l/m 0 min 0 min 0,0 UV-I 0 W/m 0,0 km/h (0 Bft)
28.05.2014 21:36 14,2 C 12,8 C 96 % 1012,8 hPa 0,0 l/m 0 min 0 min 0,0 UV-I 0 W/m 0,0 km/h (0 Bft)
28.05.2014 21:38 14,2 C 12,8 C 96 % 1012,8 hPa 0,0 l/m 0 min 0 min 0,0 UV-I 0 W/m 0,0 km/h (0 Bft)
28.05.2014 21:40 14,2 C 12,8 C 96 % 1012,8 hPa 0,0 l/m 0 min 0 min 0,0 UV-I 0 W/m 0,0 km/h (0 Bft)
28.05.2014 21:42 14,2 C 12,8 C 96 % 1012,8 hPa 0,0 l/m 0 min 0 min 0,0 UV-I 0 W/m 0,0 km/h (0 Bft)
28.05.2014 21:44 14,2 C 12,8 C 96 % 1012,8 hPa 0,0 l/m 0 min 0 min 0,0 UV-I 0 W/m 0,0 km/h (0 Bft)
28.05.2014 21:46 14,2 C 12,8 C 96 % 1012,8 hPa 0,0 l/m 0 min 0 min 0,0 UV-I 0 W/m 0,0 km/h (0 Bft)
28.05.2014 21:48 14,2 C 12,8 C 96 % 1012,8 hPa 0,0 l/m 0 min 0 min 0,0 UV-I 0 W/m 0,0 km/h (0 Bft)
28.05.2014 21:50 14,2 C 12,8 C 96 % 1012,8 hPa 0,0 l/m 0 min 0 min 0,0 UV-I 0 W/m 0,0 km/h (0 Bft)
28.05.2014 21:52 14,2 C 12,8 C 96 % 1012,8 hPa 0,0 l/m 0 min 0 min 0,0 UV-I 0 W/m 0,0 km/h (0 Bft)
28.05.2014 21:54 14,2 C 12,8 C 97 % 1012,8 hPa 0,0 l/m 0 min 0 min 0,0 UV-I 0 W/m 0,0 km/h (0 Bft)
28.05.2014 21:56 14,2 C 12,8 C 97 % 1012,8 hPa 0,0 l/m 0 min 0 min 0,0 UV-I 0 W/m 0,0 km/h (0 Bft)
28.05.2014 21:58 14,1 C 12,8 C 97 % 1012,8 hPa 0,0 l/m 0 min 0 min 0,0 UV-I 0 W/m 0,0 km/h (0 Bft)
28.05.2014 22:00 14,1 C 12,8 C 97 % 1012,8 hPa 0,0 l/m 0 min 0 min 0,0 UV-I 0 W/m 0,0 km/h (0 Bft)
28.05.2014 22:02 14,1 C 12,8 C 97 % 1012,8 hPa 0,0 l/m 0 min 0 min 0,0 UV-I 0 W/m 0,0 km/h (0 Bft)
28.05.2014 22:06 14,1 C 12,8 C 97 % 1012,9 hPa 0,0 l/m 0 min 0 min 0,0 UV-I 0 W/m 0,0 km/h (0 Bft)
28.05.2014 22:08 14,1 C 12,8 C 97 % 1012,9 hPa 0,0 l/m 0 min 0 min 0,0 UV-I 0 W/m 0,0 km/h (0 Bft)
28.05.2014 22:10 14,0 C 12,8 C 97 % 1012,9 hPa 0,0 l/m 0 min 0 min 0,0 UV-I 0 W/m 0,0 km/h (0 Bft)
28.05.2014 22:12 14,0 C 12,8 C 97 % 1012,9 hPa 0,0 l/m 0 min 0 min 0,0 UV-I 0 W/m 0,0 km/h (0 Bft)
28.05.2014 22:14 14,0 C 12,8 C 97 % 1012,9 hPa 0,0 l/m 0 min 0 min 0,0 UV-I 0 W/m 0,0 km/h (0 Bft)
28.05.2014 22:16 14,1 C 12,8 C 97 % 1012,9 hPa 0,0 l/m 0 min 0 min 0,0 UV-I 0 W/m 0,0 km/h (0 Bft)
28.05.2014 22:18 14,0 C 12,8 C 97 % 1012,9 hPa 0,0 l/m 0 min 0 min 0,0 UV-I 0 W/m 0,0 km/h (0 Bft)
28.05.2014 22:20 14,0 C 12,8 C 97 % 1012,9 hPa 0,0 l/m 0 min 0 min 0,0 UV-I 0 W/m 0,0 km/h (0 Bft)
28.05.2014 22:22 14,0 C 12,8 C 97 % 1012,9 hPa 0,0 l/m 0 min 0 min 0,0 UV-I 0 W/m 0,0 km/h (0 Bft)
28.05.2014 22:24 14,0 C 12,8 C 97 % 1012,9 hPa 0,0 l/m 0 min 0 min 0,0 UV-I 0 W/m 0,0 km/h (0 Bft)
28.05.2014 22:26 14,0 C 12,8 C 97 % 1012,9 hPa 0,0 l/m 0 min 0 min 0,0 UV-I 0 W/m 0,0 km/h (0 Bft)
28.05.2014 22:28 14,0 C 12,8 C 97 % 1012,9 hPa 0,0 l/m 0 min 0 min 0,0 UV-I 0 W/m 0,0 km/h (0 Bft)
28.05.2014 22:30 14,0 C 12,8 C 97 % 1012,9 hPa 0,0 l/m 0 min 0 min 0,0 UV-I 0 W/m 0,0 km/h (0 Bft)
28.05.2014 22:32 13,9 C 12,8 C 97 % 1012,9 hPa 0,0 l/m 0 min 0 min 0,0 UV-I 0 W/m 0,0 km/h (0 Bft)
28.05.2014 22:34 13,9 C 12,8 C 97 % 1012,9 hPa 0,0 l/m 0 min 0 min 0,0 UV-I 0 W/m 0,0 km/h (0 Bft)
28.05.2014 22:36 13,9 C 12,8 C 97 % 1012,9 hPa 0,0 l/m 0 min 0 min 0,0 UV-I 0 W/m 0,0 km/h (0 Bft)
28.05.2014 22:38 13,9 C 12,8 C 97 % 1012,9 hPa 0,0 l/m 0 min 0 min 0,0 UV-I 0 W/m 0,0 km/h (0 Bft)
28.05.2014 22:40 13,9 C 12,8 C 97 % 1012,9 hPa 0,0 l/m 0 min 0 min 0,0 UV-I 0 W/m 0,0 km/h (0 Bft)
28.05.2014 22:42 13,9 C 12,8 C 97 % 1012,9 hPa 0,0 l/m 0 min 0 min 0,0 UV-I 0 W/m 0,0 km/h (0 Bft)
28.05.2014 22:44 13,9 C 12,8 C 97 % 1013,0 hPa 0,0 l/m 0 min 0 min 0,0 UV-I 0 W/m 0,0 km/h (0 Bft)
28.05.2014 22:46 13,9 C 12,8 C 97 % 1013,0 hPa 0,0 l/m 0 min 0 min 0,0 UV-I 0 W/m 0,0 km/h (0 Bft)
28.05.2014 22:48 13,9 C 12,8 C 97 % 1013,0 hPa 0,0 l/m 0 min 0 min 0,0 UV-I 0 W/m 0,0 km/h (0 Bft)
28.05.2014 22:50 13,9 C 12,8 C 97 % 1013,0 hPa 0,0 l/m 0 min 0 min 0,0 UV-I 0 W/m 0,0 km/h (0 Bft)
28.05.2014 22:52 13,9 C 12,8 C 97 % 1013,0 hPa 0,0 l/m 0 min 0 min 0,0 UV-I 0 W/m 0,0 km/h (0 Bft)
28.05.2014 22:54 13,8 C 12,8 C 97 % 1012,9 hPa 0,0 l/m 0 min 0 min 0,0 UV-I 0 W/m 0,0 km/h (0 Bft)
28.05.2014 22:56 13,9 C 12,8 C 97 % 1013,0 hPa 0,0 l/m 0 min 0 min 0,0 UV-I 0 W/m 0,0 km/h (0 Bft)
28.05.2014 22:58 13,9 C 12,8 C 97 % 1013,0 hPa 0,0 l/m 0 min 0 min 0,0 UV-I 0 W/m 0,0 km/h (0 Bft)
28.05.2014 23:00 13,9 C 12,8 C 97 % 1013,0 hPa 0,0 l/m 0 min 0 min 0,0 UV-I 0 W/m 0,0 km/h (0 Bft)
28.05.2014 23:02 13,9 C 12,8 C 97 % 1013,0 hPa 0,0 l/m 0 min 0 min 0,0 UV-I 0 W/m 0,0 km/h (0 Bft)
28.05.2014 23:06 13,8 C 12,8 C 97 % 1013,1 hPa 0,0 l/m 0 min 0 min 0,0 UV-I 0 W/m 0,0 km/h (0 Bft)
28.05.2014 23:08 13,8 C 12,8 C 97 % 1013,1 hPa 0,0 l/m 0 min 0 min 0,0 UV-I 0 W/m 0,0 km/h (0 Bft)
28.05.2014 23:10 13,8 C 12,8 C 97 % 1013,1 hPa 0,0 l/m 0 min 0 min 0,0 UV-I 0 W/m 0,0 km/h (0 Bft)
28.05.2014 23:12 13,8 C 12,8 C 97 % 1013,1 hPa 0,0 l/m 0 min 0 min 0,0 UV-I 0 W/m 0,0 km/h (0 Bft)
28.05.2014 23:14 13,8 C 12,8 C 97 % 1013,1 hPa 0,0 l/m 0 min 0 min 0,0 UV-I 0 W/m 0,0 km/h (0 Bft)
28.05.2014 23:16 13,8 C 12,8 C 97 % 1013,1 hPa 0,0 l/m 0 min 0 min 0,0 UV-I 0 W/m 0,0 km/h (0 Bft)
28.05.2014 23:18 13,8 C 12,8 C 97 % 1013,1 hPa 0,0 l/m 0 min 0 min 0,0 UV-I 0 W/m 0,0 km/h (0 Bft)
28.05.2014 23:20 13,8 C 12,8 C 97 % 1013,1 hPa 0,0 l/m 0 min 0 min 0,0 UV-I 0 W/m 0,0 km/h (0 Bft)
28.05.2014 23:22 13,8 C 12,2 C 97 % 1013,1 hPa 0,0 l/m 0 min 0 min 0,0 UV-I 0 W/m 0,0 km/h (0 Bft)
28.05.2014 23:24 13,7 C 12,2 C 97 % 1013,1 hPa 0,0 l/m 0 min 0 min 0,0 UV-I 0 W/m 0,0 km/h (0 Bft)
28.05.2014 23:26 13,7 C 12,2 C 97 % 1013,1 hPa 0,0 l/m 0 min 0 min 0,0 UV-I 0 W/m 0,0 km/h (0 Bft)
28.05.2014 23:28 13,7 C 12,2 C 98 % 1013,1 hPa 0,0 l/m 0 min 0 min 0,0 UV-I 0 W/m 0,0 km/h (0 Bft)
28.05.2014 23:30 13,7 C 12,2 C 98 % 1013,1 hPa 0,0 l/m 0 min 0 min 0,0 UV-I 0 W/m 0,0 km/h (0 Bft)
28.05.2014 23:32 13,7 C 12,2 C 98 % 1013,1 hPa 0,0 l/m 0 min 0 min 0,0 UV-I 0 W/m 0,0 km/h (0 Bft)
28.05.2014 23:34 13,7 C 12,2 C 98 % 1013,1 hPa 0,0 l/m 0 min 0 min 0,0 UV-I 0 W/m 0,0 km/h (0 Bft)
28.05.2014 23:36 13,7 C 12,2 C 98 % 1013,1 hPa 0,0 l/m 0 min 0 min 0,0 UV-I 0 W/m 0,0 km/h (0 Bft)
28.05.2014 23:38 13,7 C 12,2 C 98 % 1013,1 hPa 0,0 l/m 0 min 0 min 0,0 UV-I 0 W/m 0,0 km/h (0 Bft)
28.05.2014 23:40 13,7 C 12,2 C 98 % 1013,1 hPa 0,0 l/m 0 min 0 min 0,0 UV-I 0 W/m 0,0 km/h (0 Bft)
28.05.2014 23:42 13,7 C 12,2 C 98 % 1013,1 hPa 0,0 l/m 0 min 0 min 0,0 UV-I 0 W/m 0,0 km/h (0 Bft)
28.05.2014 23:44 13,7 C 12,2 C 98 % 1013,1 hPa 0,0 l/m 0 min 0 min 0,0 UV-I 0 W/m 0,0 km/h (0 Bft)
28.05.2014 23:46 13,7 C 12,2 C 98 % 1013,1 hPa 0,0 l/m 0 min 0 min 0,0 UV-I 0 W/m 0,0 km/h (0 Bft)
28.05.2014 23:48 13,7 C 12,2 C 98 % 1013,1 hPa 0,0 l/m 0 min 0 min 0,0 UV-I 0 W/m 0,0 km/h (0 Bft)
28.05.2014 23:50 13,7 C 12,2 C 98 % 1013,1 hPa 0,0 l/m 0 min 0 min 0,0 UV-I 0 W/m 0,0 km/h (0 Bft)
28.05.2014 23:52 13,7 C 12,2 C 98 % 1013,0 hPa 0,0 l/m 0 min 0 min 0,0 UV-I 0 W/m 0,0 km/h (0 Bft)
28.05.2014 23:54 13,7 C 12,2 C 98 % 1013,0 hPa 0,0 l/m 0 min 0 min 0,0 UV-I 0 W/m 0,0 km/h (0 Bft)
28.05.2014 23:56 13,7 C 12,2 C 98 % 1013,0 hPa 0,0 l/m 0 min 0 min 0,0 UV-I 0 W/m 0,0 km/h (0 Bft)
28.05.2014 23:58 13,7 C 12,2 C 98 % 1013,0 hPa 0,0 l/m 0 min 0 min 0,0 UV-I 0 W/m 0,0 km/h (0 Bft)
_ Min-Zeit 06:30 04:40 13:52 04:38 - - - - - 00:10
Minimum _ 12,6 C 11,7 C 85 % 1009,9 hPa - - - - - 0,0 km/h (0 Bft)
_ Max-Zeit 14:22 14:14 23:28 23:06 17:30 00:00 10:34 14:12 14:12 10:10
Maximum _ 16,4 C 16,7 C 98 % 1013,1 hPa 0,2 l/m 0 min 2 min 1,8 UV-I 385 W/m 25,7 km/h
SW (4 Bft)
Durchschnitt _ 14,0 C 13,0 C 94 % 1011,3 hPa #0,2 l/m #0 min. #1:28 h 1,0 UV-I 97 W/m 4,3 km/h (1 Bft)
© 2014 W. Hausmann